tititudorancea.com
Ararat Weather - Ararat,Victoria,Australia
 
Daily Summary for August 27, 2014 Units:  Metric    English   Both
« Previous Day
Next Day »
Daily Weekly Monthly Yearly Custom
  Current: High: Low: Average:
Temperature: 8.8 °C 18.7 °C 1.9 °C 10.7 °C
Dew Point: 5.6 °C 11.8 °C 1.7 °C 6.8 °C
Humidity: 80% 99% 54% 80%
Wind Speed: 0km/h 12.2km/h 0km/h 1.8km/h
Wind Gust: 0km/h 19.5km/h - -
WindCalm - - SE
Pressure: 1026.6 hPa 1027 hPa 1024.6 hPa -
Precipitation: 0 mm      
Historical Graphs
 
 
Ararat weather Find more about Weather in Ararat, AU


 




 


Tabular Data for August 27, 2014
Time Temperature Dew Point Pressure Wind Wind Speed Wind Gust Humidity Rainfall Rate (Hourly)
00:00 5.4 °C 4.5 °C 1024.9 hPa ESE 1.1 km/h 3.5 km/h 94% 0 mm
00:01 5.4 °C 4.5 °C 1024.6 hPa ESE 1.1 km/h 3.5 km/h 94% 0 mm
00:02 5.4 °C 4.5 °C 1024.9 hPa Calm   3.5 km/h 94% 0 mm
00:04 5.4 °C 4.5 °C 1024.6 hPa ENE 1.1 km/h 3.5 km/h 94% 0 mm
00:05 5.4 °C 4.5 °C 1024.9 hPa Calm   3.5 km/h 94% 0 mm
00:06 5.4 °C 4.5 °C 1024.6 hPa Calm   3.5 km/h 94% 0 mm
00:07 5.4 °C 4.5 °C 1024.9 hPa Calm   3.5 km/h 94% 0 mm
00:10 5.4 °C 4.5 °C 1024.6 hPa Calm   2.6 km/h 94% 0 mm
00:11 5.3 °C 4.4 °C 1024.9 hPa Calm   2.6 km/h 94% 0 mm
00:12 5.3 °C 4.6 °C 1024.9 hPa Calm   2.6 km/h 95% 0 mm
00:13 5.3 °C 4.6 °C 1024.9 hPa Calm   2.6 km/h 95% 0 mm
00:15 5.3 °C 4.6 °C 1024.6 hPa Calm   1.1 km/h 95% 0 mm
00:17 5.3 °C 4.6 °C 1024.9 hPa Calm   1.1 km/h 95% 0 mm
00:18 5.3 °C 4.6 °C 1024.9 hPa Calm   1.1 km/h 95% 0 mm
00:21 5.3 °C 4.6 °C 1024.9 hPa Calm   2.6 km/h 95% 0 mm
00:22 5.3 °C 4.6 °C 1024.9 hPa Calm   2.6 km/h 95% 0 mm
00:23 5.3 °C 4.6 °C 1024.9 hPa Calm   2.6 km/h 95% 0 mm
00:26 5.3 °C 4.6 °C 1024.9 hPa Calm   2.6 km/h 95% 0 mm
00:27 5.3 °C 4.6 °C 1024.9 hPa Calm   2.6 km/h 95% 0 mm
00:28 5.3 °C 4.6 °C 1024.9 hPa NW 1.1 km/h 2.6 km/h 95% 0 mm
00:29 5.3 °C 4.6 °C 1024.9 hPa NW 1.1 km/h 2.6 km/h 95% 0 mm
00:32 5.2 °C 4.4 °C 1024.9 hPa Calm   2.6 km/h 95% 0 mm
00:33 5.2 °C 4.4 °C 1024.9 hPa Calm   2.6 km/h 95% 0 mm
00:34 5.2 °C 4.4 °C 1024.9 hPa Calm   2.6 km/h 95% 0 mm
00:37 5.2 °C 4.4 °C 1024.9 hPa Calm   2.6 km/h 95% 0 mm
00:38 5.2 °C 4.6 °C 1024.6 hPa Calm   2.6 km/h 96% 0 mm
00:39 5.2 °C 4.4 °C 1024.9 hPa Calm   2.6 km/h 95% 0 mm
00:40 5.2 °C 4.6 °C 1024.6 hPa Calm   2.6 km/h 96% 0 mm
00:43 5.1 °C 4.5 °C 1024.9 hPa Calm   1.1 km/h 96% 0 mm
00:44 5.1 °C 4.5 °C 1024.9 hPa Calm   1.1 km/h 96% 0 mm
00:47 5.1 °C 4.5 °C 1024.9 hPa NE 2.6 km/h 3.5 km/h 96% 0 mm
00:48 5.1 °C 4.5 °C 1024.9 hPa NE 2.6 km/h 3.5 km/h 96% 0 mm
00:49 5.1 °C 4.5 °C 1024.9 hPa NE 1.1 km/h 3.5 km/h 96% 0 mm
00:52 5.1 °C 4.5 °C 1024.9 hPa Calm   3.5 km/h 96% 0 mm
00:53 5.1 °C 4.5 °C 1024.9 hPa Calm   3.5 km/h 96% 0 mm
00:54 5.1 °C 4.5 °C 1024.9 hPa NE 1.1 km/h 3.5 km/h 96% 0 mm
00:55 5.1 °C 4.5 °C 1024.9 hPa NE 1.1 km/h 3.5 km/h 96% 0 mm
00:57 5 °C 4.4 °C 1024.9 hPa Calm   3.5 km/h 96% 0 mm
00:58 5.1 °C 4.5 °C 1024.9 hPa Calm   3.5 km/h 96% 0 mm
00:59 5 °C 4.4 °C 1024.9 hPa Calm   3.5 km/h 96% 0 mm
01:00 5 °C 4.4 °C 1024.9 hPa Calm   3.5 km/h 96% 0 mm
01:01 5 °C 4.4 °C 1024.9 hPa Calm   3.5 km/h 96% 0 mm
01:02 5 °C 4.4 °C 1024.9 hPa Calm   3.5 km/h 96% 0 mm
01:04 5 °C 4.4 °C 1024.9 hPa Calm   3.5 km/h 96% 0 mm
01:05 5 °C 4.4 °C 1024.9 hPa Calm   1.1 km/h 96% 0 mm
01:06 5 °C 4.4 °C 1024.9 hPa Calm   1.1 km/h 96% 0 mm
01:07 4.9 °C 4.3 °C 1024.9 hPa Calm   1.1 km/h 96% 0 mm
01:09 4.9 °C 4.3 °C 1024.9 hPa Calm   1.1 km/h 96% 0 mm
01:11 4.8 °C 4.2 °C 1024.9 hPa Calm   2.6 km/h 96% 0 mm
01:14 4.8 °C 4.2 °C 1024.9 hPa Calm   2.6 km/h 96% 0 mm
01:16 4.7 °C 4.1 °C 1024.9 hPa Calm   2.6 km/h 96% 0 mm
01:19 4.7 °C 4.3 °C 1024.9 hPa Calm   2.6 km/h 97% 0 mm
01:20 4.7 °C 4.3 °C 1024.9 hPa Calm   2.6 km/h 97% 0 mm
01:21 4.6 °C 4 °C 1024.9 hPa Calm   2.6 km/h 96% 0 mm
01:22 4.6 °C 4.2 °C 1024.9 hPa Calm   2.6 km/h 97% 0 mm
01:25 4.6 °C 4.2 °C 1024.9 hPa Calm   1.1 km/h 97% 0 mm
01:27 4.6 °C 4.2 °C 1024.9 hPa Calm     97% 0 mm
01:28 4.6 °C 4.2 °C 1024.9 hPa Calm     97% 0 mm
01:30 4.6 °C 4.2 °C 1024.9 hPa Calm   1.1 km/h 97% 0 mm
01:32 4.6 °C 4.2 °C 1024.9 hPa Calm   1.1 km/h 97% 0 mm
01:33 4.6 °C 4.2 °C 1024.9 hPa Calm   1.1 km/h 97% 0 mm
01:35 4.6 °C 4.2 °C 1024.9 hPa Calm   1.1 km/h 97% 0 mm
01:38 4.5 °C 4.1 °C 1024.9 hPa Calm   1.1 km/h 97% 0 mm
01:39 4.6 °C 4.2 °C 1024.9 hPa Calm   1.1 km/h 97% 0 mm
01:40 4.5 °C 4.1 °C 1024.9 hPa NE 1.1 km/h 2.6 km/h 97% 0 mm
01:41 4.5 °C 4.1 °C 1024.9 hPa ENE 2.6 km/h 3.5 km/h 97% 0 mm
01:43 4.4 °C 4 °C 1024.9 hPa East 2.6 km/h 5 km/h 97% 0 mm
01:45 4.4 °C 4 °C 1024.9 hPa Calm   5 km/h 97% 0 mm
01:46 4.4 °C 4 °C 1024.9 hPa Calm   5 km/h 97% 0 mm
01:48 4.4 °C 4 °C 1024.9 hPa Calm   5 km/h 97% 0 mm
01:50 4.4 °C 4 °C 1024.9 hPa Calm   5 km/h 97% 0 mm
01:51 4.4 °C 4 °C 1024.9 hPa Calm   5 km/h 97% 0 mm
01:52 4.4 °C 4 °C 1024.9 hPa Calm   5 km/h 97% 0 mm
01:53 4.4 °C 4 °C 1024.9 hPa Calm   2.6 km/h 97% 0 mm
01:56 4.4 °C 4 °C 1024.9 hPa Calm   1.1 km/h 97% 0 mm
01:58 4.3 °C 4 °C 1024.9 hPa Calm     98% 0 mm
01:59 4.3 °C 3.9 °C 1024.9 hPa Calm     97% 0 mm
02:01 4.3 °C 3.9 °C 1024.9 hPa Calm   2.6 km/h 97% 0 mm
02:02 4.3 °C 4 °C 1024.9 hPa Calm   2.6 km/h 98% 0 mm
02:03 4.3 °C 4 °C 1024.9 hPa Calm   2.6 km/h 98% 0 mm
02:04 4.3 °C 4 °C 1024.9 hPa Calm   2.6 km/h 98% 0 mm
02:06 4.3 °C 4 °C 1024.9 hPa Calm   2.6 km/h 98% 0 mm
02:08 4.3 °C 4 °C 1024.9 hPa Calm   2.6 km/h 98% 0 mm
02:09 4.3 °C 4 °C 1024.9 hPa Calm   2.6 km/h 98% 0 mm
02:10 4.3 °C 4 °C 1024.9 hPa Calm   2.6 km/h 98% 0 mm
02:11 4.3 °C 4 °C 1025.3 hPa Calm     98% 0 mm
02:14 4.3 °C 4 °C 1024.9 hPa Calm     98% 0 mm
02:15 4.3 °C 4 °C 1024.9 hPa Calm     98% 0 mm
02:17 4.3 °C 4 °C 1024.9 hPa Calm   1.1 km/h 98% 0 mm
02:19 4.3 °C 4 °C 1025.3 hPa Calm   2.6 km/h 98% 0 mm
02:20 4.3 °C 4 °C 1024.9 hPa Calm   2.6 km/h 98% 0 mm
02:23 4.2 °C 3.9 °C 1025.3 hPa Calm   2.6 km/h 98% 0 mm
02:24 4.2 °C 3.9 °C 1025.3 hPa Calm   2.6 km/h 98% 0 mm
02:25 4.2 °C 3.9 °C 1024.9 hPa Calm   2.6 km/h 98% 0 mm
02:26 4.2 °C 3.9 °C 1024.9 hPa Calm   2.6 km/h 98% 0 mm
02:27 4.2 °C 3.9 °C 1024.9 hPa Calm   2.6 km/h 98% 0 mm
02:29 4.2 °C 3.9 °C 1024.9 hPa Calm   1.1 km/h 98% 0 mm
02:30 4.2 °C 3.9 °C 1024.9 hPa NNE 1.1 km/h 2.6 km/h 98% 0 mm
02:31 4.2 °C 3.9 °C 1024.9 hPa NNE 1.1 km/h 2.6 km/h 98% 0 mm
02:32 4.2 °C 3.9 °C 1024.9 hPa Calm   2.6 km/h 98% 0 mm
02:35 4.2 °C 3.9 °C 1024.9 hPa Calm   2.6 km/h 98% 0 mm
02:36 4.2 °C 3.9 °C 1024.9 hPa Calm   2.6 km/h 98% 0 mm
02:37 4.2 °C 3.9 °C 1024.9 hPa Calm   2.6 km/h 98% 0 mm
02:40 4.2 °C 3.9 °C 1024.9 hPa Calm   2.6 km/h 98% 0 mm
02:41 4.2 °C 3.9 °C 1024.9 hPa Calm   2.6 km/h 98% 0 mm
02:42 4.2 °C 4.1 °C 1024.9 hPa Calm   1.1 km/h 99% 0 mm
02:43 4.2 °C 3.9 °C 1024.9 hPa Calm     98% 0 mm
02:46 4.2 °C 3.9 °C 1024.9 hPa Calm   1.1 km/h 98% 0 mm
02:47 4.2 °C 3.9 °C 1024.9 hPa Calm   1.1 km/h 98% 0 mm
02:48 4.2 °C 4.1 °C 1024.9 hPa Calm   1.1 km/h 99% 0 mm
02:51 4.2 °C 4.1 °C 1024.9 hPa Calm   1.1 km/h 99% 0 mm
02:53 4.2 °C 4.1 °C 1024.9 hPa Calm   1.1 km/h 99% 0 mm
02:54 4.2 °C 4.1 °C 1024.9 hPa Calm   1.1 km/h 99% 0 mm
02:56 4.2 °C 4.1 °C 1024.9 hPa Calm   1.1 km/h 99% 0 mm
02:58 4.2 °C 4.1 °C 1024.9 hPa Calm   1.1 km/h 99% 0 mm
02:59 4.2 °C 4.1 °C 1024.9 hPa Calm   1.1 km/h 99% 0 mm
03:02 4.2 °C 4.1 °C 1024.9 hPa Calm   1.1 km/h 99% 0 mm
03:04 4.2 °C 4.1 °C 1024.6 hPa Calm     99% 0 mm
03:05 4.2 °C 4.1 °C 1024.9 hPa Calm     99% 0 mm
03:06 4.2 °C 4.1 °C 1024.9 hPa Calm     99% 0 mm
03:07 4.2 °C 4.1 °C 1024.9 hPa Calm     99% 0 mm
03:09 4.2 °C 4.1 °C 1024.6 hPa Calm   1.1 km/h 99% 0 mm
03:10 4.2 °C 4.1 °C 1024.6 hPa Calm   1.1 km/h 99% 0 mm
03:11 4.2 °C 4.1 °C 1024.6 hPa Calm   1.1 km/h 99% 0 mm
03:12 4.2 °C 4.1 °C 1024.9 hPa Calm   1.1 km/h 99% 0 mm
03:13 4.2 °C 4.1 °C 1024.9 hPa Calm   1.1 km/h 99% 0 mm
03:14 4.2 °C 4.1 °C 1024.6 hPa Calm   1.1 km/h 99% 0 mm
03:15 4.2 °C 4.1 °C 1024.9 hPa Calm   1.1 km/h 99% 0 mm
03:16 4.2 °C 4.1 °C 1024.9 hPa Calm   1.1 km/h 99% 0 mm
03:19 4.2 °C 4.1 °C 1024.9 hPa Calm   1.1 km/h 99% 0 mm
03:20 4.2 °C 4.1 °C 1024.6 hPa Calm   1.1 km/h 99% 0 mm
03:21 4.2 °C 4.1 °C 1024.6 hPa Calm   1.1 km/h 99% 0 mm
03:22 4.2 °C 4.1 °C 1024.9 hPa Calm   1.1 km/h 99% 0 mm
03:24 4.2 °C 4.1 °C 1024.6 hPa Calm   1.1 km/h 99% 0 mm
03:25 4.1 °C 4 °C 1024.6 hPa Calm   1.1 km/h 99% 0 mm
03:26 4.1 °C 4 °C 1024.6 hPa Calm   1.1 km/h 99% 0 mm
03:28 4.1 °C 4 °C 1024.6 hPa Calm   1.1 km/h 99% 0 mm
03:29 4 °C 3.9 °C 1024.6 hPa Calm   1.1 km/h 99% 0 mm
03:30 4 °C 3.9 °C 1024.6 hPa Calm   1.1 km/h 99% 0 mm
03:31 4 °C 3.9 °C 1024.6 hPa Calm   1.1 km/h 99% 0 mm
03:32 4 °C 3.9 °C 1024.6 hPa Calm   1.1 km/h 99% 0 mm
03:34 3.9 °C 3.8 °C 1024.9 hPa Calm   1.1 km/h 99% 0 mm
03:35 3.9 °C 3.8 °C 1024.6 hPa Calm   1.1 km/h 99% 0 mm
03:36 3.9 °C 3.8 °C 1024.6 hPa Calm   1.1 km/h 99% 0 mm
03:37 3.9 °C 3.8 °C 1024.6 hPa Calm   1.1 km/h 99% 0 mm
03:38 3.9 °C 3.8 °C 1024.9 hPa Calm   1.1 km/h 99% 0 mm
03:40 3.9 °C 3.8 °C 1024.9 hPa Calm     99% 0 mm
03:41 3.9 °C 3.8 °C 1024.9 hPa Calm     99% 0 mm
03:42 3.8 °C 3.7 °C 1024.9 hPa Calm   1.1 km/h 99% 0 mm
03:44 3.8 °C 3.7 °C 1024.9 hPa Calm   1.1 km/h 99% 0 mm
03:45 3.8 °C 3.7 °C 1024.9 hPa Calm   1.1 km/h 99% 0 mm
03:46 3.8 °C 3.7 °C 1024.9 hPa Calm   1.1 km/h 99% 0 mm
03:47 3.8 °C 3.7 °C 1024.9 hPa Calm   1.1 km/h 99% 0 mm
03:50 3.8 °C 3.7 °C 1024.9 hPa Calm   1.1 km/h 99% 0 mm
03:51 3.7 °C 3.6 °C 1024.9 hPa Calm   1.1 km/h 99% 0 mm
03:52 3.7 °C 3.6 °C 1024.9 hPa Calm   1.1 km/h 99% 0 mm
03:53 3.7 °C 3.6 °C 1024.6 hPa Calm   1.1 km/h 99% 0 mm
03:55 3.7 °C 3.6 °C 1024.6 hPa Calm   1.1 km/h 99% 0 mm
03:56 3.6 °C 3.5 °C 1024.9 hPa Calm   1.1 km/h 99% 0 mm
03:58 3.6 °C 3.5 °C 1024.6 hPa Calm   1.1 km/h 99% 0 mm
03:59 3.6 °C 3.5 °C 1024.6 hPa Calm   1.1 km/h 99% 0 mm
04:00 3.6 °C 3.5 °C 1024.6 hPa Calm   1.1 km/h 99% 0 mm
04:01 3.6 °C 3.4 °C 1024.6 hPa Calm   1.1 km/h 99% 0 mm
04:02 3.6 °C 3.4 °C 1024.6 hPa Calm   1.1 km/h 99% 0 mm
04:03 3.6 °C 3.4 °C 1024.6 hPa Calm     99% 0 mm
04:04 3.6 °C 3.4 °C 1024.6 hPa Calm     99% 0 mm
04:06 3.4 °C 3.3 °C 1024.6 hPa Calm   1.1 km/h 99% 0 mm
04:07 3.4 °C 3.3 °C 1024.6 hPa Calm   1.1 km/h 99% 0 mm
04:08 3.3 °C 3.2 °C 1024.6 hPa Calm   1.1 km/h 99% 0 mm
04:09 3.3 °C 3.2 °C 1024.9 hPa Calm   1.1 km/h 99% 0 mm
04:12 3.2 °C 3.1 °C 1024.6 hPa Calm   1.1 km/h 99% 0 mm
04:13 3.2 °C 3.1 °C 1024.6 hPa Calm   1.1 km/h 99% 0 mm
04:14 3.2 °C 3.1 °C 1024.9 hPa Calm   1.1 km/h 99% 0 mm
04:15 3.2 °C 3.1 °C 1024.6 hPa Calm   1.1 km/h 99% 0 mm
04:18 3.2 °C 3.1 °C 1024.9 hPa Calm   1.1 km/h 99% 0 mm
04:19 3.1 °C 3 °C 1024.6 hPa Calm   1.1 km/h 99% 0 mm
04:20 3.1 °C 3 °C 1024.6 hPa Calm   1.1 km/h 99% 0 mm
04:21 3.1 °C 3 °C 1024.6 hPa Calm   1.1 km/h 99% 0 mm
04:23 3.1 °C 3 °C 1024.6 hPa Calm   1.1 km/h 99% 0 mm
04:24 3.1 °C 3 °C 1024.6 hPa Calm   1.1 km/h 99% 0 mm
04:25 3.1 °C 3 °C 1024.9 hPa Calm   1.1 km/h 99% 0 mm
04:27 3.1 °C 2.9 °C 1024.6 hPa Calm   1.1 km/h 99% 0 mm
04:28 3.1 °C 3 °C 1024.9 hPa Calm   1.1 km/h 99% 0 mm
04:29 3.1 °C 3 °C 1024.6 hPa Calm   1.1 km/h 99% 0 mm
04:30 3.1 °C 3 °C 1024.9 hPa Calm   1.1 km/h 99% 0 mm
04:31 3.1 °C 3 °C 1024.6 hPa Calm   1.1 km/h 99% 0 mm
04:33 3.1 °C 2.9 °C 1024.6 hPa Calm     99% 0 mm
04:34 3.1 °C 2.9 °C 1024.6 hPa Calm     99% 0 mm
04:35 3.1 °C 2.9 °C 1024.9 hPa Calm     99% 0 mm
04:36 3.1 °C 2.9 °C 1024.9 hPa Calm     99% 0 mm
04:37 3.1 °C 2.9 °C 1024.9 hPa Calm     99% 0 mm
04:39 3.1 °C 2.9 °C 1024.6 hPa Calm     99% 0 mm
04:40 3.1 °C 2.9 °C 1024.6 hPa Calm     99% 0 mm
04:42 2.9 °C 2.8 °C 1024.9 hPa Calm     99% 0 mm
04:44 2.9 °C 2.8 °C 1024.6 hPa Calm     99% 0 mm
04:46 2.9 °C 2.8 °C 1024.6 hPa Calm     99% 0 mm
04:47 2.9 °C 2.8 °C 1024.6 hPa Calm     99% 0 mm
04:48 2.9 °C 2.8 °C 1024.6 hPa Calm     99% 0 mm
04:49 2.9 °C 2.8 °C 1024.6 hPa Calm     99% 0 mm
04:50 2.9 °C 2.8 °C 1024.6 hPa Calm     99% 0 mm
04:51 2.9 °C 2.8 °C 1024.6 hPa Calm     99% 0 mm
04:52 2.8 °C 2.7 °C 1024.9 hPa Calm     99% 0 mm
04:53 2.8 °C 2.7 °C 1024.6 hPa Calm     99% 0 mm
04:54 2.8 °C 2.7 °C 1024.6 hPa Calm     99% 0 mm
04:56 2.8 °C 2.7 °C 1024.6 hPa Calm     99% 0 mm
04:57 2.7 °C 2.6 °C 1024.9 hPa Calm     99% 0 mm
04:58 2.7 °C 2.6 °C 1024.9 hPa Calm     99% 0 mm
04:59 2.7 °C 2.6 °C 1024.6 hPa Calm     99% 0 mm
05:00 2.7 °C 2.6 °C 1024.6 hPa Calm     99% 0 mm
05:01 2.7 °C 2.6 °C 1024.6 hPa Calm     99% 0 mm
05:02 2.7 °C 2.6 °C 1024.6 hPa Calm   1.1 km/h 99% 0 mm
05:04 2.7 °C 2.5 °C 1024.6 hPa Calm   2.6 km/h 99% 0 mm
05:05 2.7 °C 2.5 °C 1024.9 hPa Calm   2.6 km/h 99% 0 mm
05:07 2.7 °C 2.5 °C 1024.6 hPa Calm   2.6 km/h 99% 0 mm
05:08 2.7 °C 2.5 °C 1024.9 hPa Calm   2.6 km/h 99% 0 mm
05:10 2.7 °C 2.5 °C 1024.6 hPa Calm   2.6 km/h 99% 0 mm
05:11 2.7 °C 2.5 °C 1024.9 hPa Calm   2.6 km/h 99% 0 mm
05:12 2.7 °C 2.5 °C 1024.6 hPa Calm   2.6 km/h 99% 0 mm
05:15 2.7 °C 2.5 °C 1024.6 hPa Calm     99% 0 mm
05:17 2.7 °C 2.5 °C 1024.6 hPa Calm     99% 0 mm
05:18 2.7 °C 2.5 °C 1024.9 hPa Calm     99% 0 mm
05:19 2.7 °C 2.5 °C 1024.9 hPa Calm     99% 0 mm
05:20 2.7 °C 2.5 °C 1024.9 hPa Calm     99% 0 mm
05:22 2.6 °C 2.4 °C 1024.9 hPa Calm     99% 0 mm
05:23 2.6 °C 2.4 °C 1024.6 hPa Calm     99% 0 mm
05:24 2.6 °C 2.4 °C 1024.9 hPa Calm     99% 0 mm
05:26 2.6 °C 2.4 °C 1024.9 hPa Calm     99% 0 mm
05:28 2.4 °C 2.3 °C 1024.6 hPa Calm     99% 0 mm
05:30 2.6 °C 2.4 °C 1024.9 hPa Calm     99% 0 mm
05:32 2.4 °C 2.3 °C 1024.9 hPa Calm     99% 0 mm
05:33 2.4 °C 2.3 °C 1024.9 hPa Calm     99% 0 mm
05:34 2.4 °C 2.3 °C 1024.9 hPa Calm     99% 0 mm
05:37 2.4 °C 2.3 °C 1024.9 hPa Calm     99% 0 mm
05:38 2.4 °C 2.3 °C 1024.9 hPa Calm     99% 0 mm
05:39 2.4 °C 2.3 °C 1024.9 hPa Calm     99% 0 mm
05:42 2.3 °C 2.2 °C 1024.9 hPa NE 1.1 km/h 2.6 km/h 99% 0 mm
05:43 2.3 °C 2.2 °C 1024.9 hPa NE 1.1 km/h 2.6 km/h 99% 0 mm
05:44 2.3 °C 2.2 °C 1024.9 hPa NE 1.1 km/h 2.6 km/h 99% 0 mm
05:48 2.3 °C 2.1 °C 1024.9 hPa Calm   2.6 km/h 99% 0 mm
05:49 2.3 °C 2.1 °C 1024.9 hPa Calm   2.6 km/h 99% 0 mm
05:50 2.3 °C 2.1 °C 1024.9 hPa Calm   2.6 km/h 99% 0 mm
05:54 2.3 °C 2.1 °C 1024.9 hPa Calm   2.6 km/h 99% 0 mm
05:55 2.3 °C 2.1 °C 1024.9 hPa Calm   1.1 km/h 99% 0 mm
05:57 2.3 °C 2.1 °C 1024.9 hPa Calm     99% 0 mm
05:59 2.3 °C 2.1 °C 1024.9 hPa Calm     99% 0 mm
06:00 2.3 °C 2.1 °C 1024.9 hPa Calm     99% 0 mm
06:01 2.3 °C 2.1 °C 1025.3 hPa Calm     99% 0 mm
06:02 2.3 °C 2.1 °C 1024.9 hPa Calm     99% 0 mm
06:04 2.3 °C 2.1 °C 1024.9 hPa Calm     99% 0 mm
06:05 2.2 °C 2 °C 1024.9 hPa Calm   1.1 km/h 99% 0 mm
06:06 2.2 °C 2 °C 1024.9 hPa Calm   1.1 km/h 99% 0 mm
06:08 2.2 °C 2 °C 1024.9 hPa Calm   2.6 km/h 99% 0 mm
06:09 2.2 °C 2 °C 1024.9 hPa Calm   2.6 km/h 99% 0 mm
06:11 2.2 °C 2 °C 1024.9 hPa Calm   2.6 km/h 99% 0 mm
06:13 2.2 °C 2 °C 1024.9 hPa Calm   2.6 km/h 99% 0 mm
06:14 2.2 °C 2 °C 1024.9 hPa Calm   2.6 km/h 99% 0 mm
06:17 2.2 °C 2 °C 1024.9 hPa Calm   2.6 km/h 99% 0 mm
06:18 2.2 °C 2 °C 1025.3 hPa Calm   1.1 km/h 99% 0 mm
06:19 2.2 °C 2 °C 1024.9 hPa Calm   1.1 km/h 99% 0 mm
06:20 2.2 °C 2 °C 1024.9 hPa Calm     99% 0 mm
06:22 2.2 °C 2 °C 1024.9 hPa Calm     99% 0 mm
06:24 2.1 °C 1.9 °C 1024.9 hPa Calm     99% 0 mm
06:25 2.1 °C 1.9 °C 1024.9 hPa Calm     99% 0 mm
06:26 2.1 °C 1.9 °C 1025.3 hPa Calm     99% 0 mm
06:28 2.1 °C 1.9 °C 1024.9 hPa East 1.1 km/h 2.6 km/h 99% 0 mm
06:29 2.1 °C 1.9 °C 1025.3 hPa East 1.1 km/h 2.6 km/h 99% 0 mm
06:30 2.1 °C 1.9 °C 1025.3 hPa East 1.1 km/h 2.6 km/h 99% 0 mm
06:31 2.1 °C 1.9 °C 1025.3 hPa Calm   2.6 km/h 99% 0 mm
06:32 2.1 °C 1.9 °C 1025.3 hPa Calm   2.6 km/h 99% 0 mm
06:33 1.9 °C 1.8 °C 1025.3 hPa Calm   2.6 km/h 99% 0 mm
06:34 1.9 °C 1.8 °C 1025.3 hPa Calm   2.6 km/h 99% 0 mm
06:35 1.9 °C 1.8 °C 1025.3 hPa Calm   2.6 km/h 99% 0 mm
06:37 1.9 °C 1.8 °C 1025.6 hPa Calm   2.6 km/h 99% 0 mm
06:38 1.9 °C 1.8 °C 1025.3 hPa Calm   2.6 km/h 99% 0 mm
06:40 1.9 °C 1.8 °C 1025.3 hPa Calm   2.6 km/h 99% 0 mm
06:42 1.9 °C 1.8 °C 1025.3 hPa Calm   2.6 km/h 99% 0 mm
06:43 1.9 °C 1.8 °C 1025.3 hPa Calm   2.6 km/h 99% 0 mm
06:44 1.9 °C 1.8 °C 1025.3 hPa Calm   2.6 km/h 99% 0 mm
06:45 1.9 °C 1.8 °C 1025.3 hPa Calm   2.6 km/h 99% 0 mm
06:46 1.9 °C 1.8 °C 1025.3 hPa Calm   2.6 km/h 99% 0 mm
06:47 1.9 °C 1.7 °C 1025.3 hPa Calm   1.1 km/h 99% 0 mm
06:48 1.9 °C 1.7 °C 1025.3 hPa Calm   1.1 km/h 99% 0 mm
06:49 1.9 °C 1.7 °C 1025.3 hPa Calm   1.1 km/h 99% 0 mm
06:50 1.9 °C 1.7 °C 1025.3 hPa Calm   1.1 km/h 99% 0 mm
06:51 1.9 °C 1.7 °C 1025.3 hPa Calm   1.1 km/h 99% 0 mm
06:52 1.9 °C 1.7 °C 1025.6 hPa Calm   1.1 km/h 99% 0 mm
06:53 1.9 °C 1.7 °C 1025.3 hPa Calm   1.1 km/h 99% 0 mm
06:54 1.9 °C 1.8 °C 1025.3 hPa Calm   1.1 km/h 99% 0 mm
06:55 1.9 °C 1.8 °C 1025.3 hPa Calm   1.1 km/h 99% 0 mm
06:56 1.9 °C 1.8 °C 1025.3 hPa Calm   1.1 km/h 99% 0 mm
06:57 1.9 °C 1.8 °C 1025.3 hPa Calm   1.1 km/h 99% 0 mm
06:58 2.1 °C 1.9 °C 1025.3 hPa Calm   1.1 km/h 99% 0 mm
06:59 2.1 °C 1.9 °C 1025.6 hPa Calm   1.1 km/h 99% 0 mm
07:01 2.1 °C 1.9 °C 1025.6 hPa Calm   1.1 km/h 99% 0 mm
07:02 2.1 °C 1.9 °C 1025.6 hPa Calm   1.1 km/h 99% 0 mm
07:03 2.1 °C 1.9 °C 1025.6 hPa Calm   1.1 km/h 99% 0 mm
07:04 2.1 °C 1.9 °C 1025.3 hPa Calm   1.1 km/h 99% 0 mm
07:05 2.1 °C 1.9 °C 1025.3 hPa Calm   1.1 km/h 99% 0 mm
07:06 2.1 °C 1.9 °C 1025.6 hPa Calm   1.1 km/h 99% 0 mm
07:07 2.1 °C 1.9 °C 1025.6 hPa Calm     99% 0 mm
07:08 2.1 °C 1.9 °C 1025.6 hPa Calm     99% 0 mm
07:09 2.1 °C 1.9 °C 1025.6 hPa Calm     99% 0 mm
07:10 2.1 °C 1.9 °C 1025.6 hPa Calm     99% 0 mm
07:11 2.1 °C 1.9 °C 1025.6 hPa Calm     99% 0 mm
07:13 2.1 °C 1.9 °C 1025.6 hPa Calm   1.1 km/h 99% 0 mm
07:14 2.1 °C 1.9 °C 1025.6 hPa Calm   1.1 km/h 99% 0 mm
07:15 2.1 °C 1.9 °C 1025.6 hPa Calm   1.1 km/h 99% 0 mm
07:16 2.1 °C 1.9 °C 1025.6 hPa Calm   1.1 km/h 99% 0 mm
07:18 2.1 °C 1.9 °C 1025.6 hPa Calm   1.1 km/h 99% 0 mm
07:20 2.1 °C 1.9 °C 1025.6 hPa Calm   1.1 km/h 99% 0 mm
07:21 2.1 °C 1.9 °C 1025.6 hPa Calm   1.1 km/h 99% 0 mm
07:22 2.1 °C 1.9 °C 1025.6 hPa Calm   1.1 km/h 99% 0 mm
07:24 2.1 °C 1.9 °C 1025.6 hPa Calm   1.1 km/h 99% 0 mm
07:25 2.2 °C 2 °C 1025.6 hPa Calm   1.1 km/h 99% 0 mm
07:26 2.2 °C 2 °C 1026 hPa Calm   1.1 km/h 99% 0 mm
07:27 2.2 °C 2 °C 1025.6 hPa Calm   1.1 km/h 99% 0 mm
07:30 2.3 °C 2.1 °C 1025.6 hPa Calm   1.1 km/h 99% 0 mm
07:31 2.3 °C 2.1 °C 1026 hPa Calm   1.1 km/h 99% 0 mm
07:33 2.3 °C 2.2 °C 1026 hPa Calm   1.1 km/h 99% 0 mm
07:35 2.4 °C 2.3 °C 1026 hPa Calm   1.1 km/h 99% 0 mm
07:36 2.4 °C 2.3 °C 1026 hPa Calm   1.1 km/h 99% 0 mm
07:37 2.6 °C 2.4 °C 1026 hPa Calm   1.1 km/h 99% 0 mm
07:39 2.7 °C 2.5 °C 1026 hPa Calm   1.1 km/h 99% 0 mm
07:40 2.7 °C 2.6 °C 1026 hPa Calm   1.1 km/h 99% 0 mm
07:41 2.7 °C 2.6 °C 1026 hPa Calm   1.1 km/h 99% 0 mm
07:44 2.8 °C 2.7 °C 1026 hPa Calm   1.1 km/h 99% 0 mm
07:45 2.9 °C 2.8 °C 1026 hPa Calm   2.6 km/h 99% 0 mm
07:46 3.1 °C 2.9 °C 1026 hPa NE 1.1 km/h 2.6 km/h 99% 0 mm
07:47 3.1 °C 3 °C 1026 hPa NE 1.1 km/h 2.6 km/h 99% 0 mm
07:49 3.2 °C 3.1 °C 1026 hPa Calm   2.6 km/h 99% 0 mm
07:50 3.4 °C 3.3 °C 1026 hPa Calm   2.6 km/h 99% 0 mm
07:51 3.4 °C 3.3 °C 1026 hPa Calm   2.6 km/h 99% 0 mm
07:52 3.4 °C 3.3 °C 1026 hPa Calm   2.6 km/h 99% 0 mm
07:53 3.6 °C 3.4 °C 1026 hPa Calm   2.6 km/h 99% 0 mm
07:54 3.6 °C 3.5 °C 1026 hPa Calm   2.6 km/h 99% 0 mm
07:55 3.8 °C 3.7 °C 1026.3 hPa NE 1.1 km/h 2.6 km/h 99% 0 mm
07:56 3.8 °C 3.7 °C 1026.3 hPa NE 1.1 km/h 2.6 km/h 99% 0 mm
07:57 4 °C 3.9 °C 1026.3 hPa NE 1.1 km/h 2.6 km/h 99% 0 mm
07:58 4.1 °C 4 °C 1026 hPa NE 1.1 km/h 2.6 km/h 99% 0 mm
07:59 4.3 °C 4.2 °C 1026 hPa NE 1.1 km/h 2.6 km/h 99% 0 mm
08:01 4.5 °C 4.4 °C 1026.3 hPa NE 1.1 km/h 3.5 km/h 99% 0 mm
08:02 4.6 °C 4.4 °C 1026.3 hPa Calm   3.5 km/h 99% 0 mm
08:03 4.7 °C 4.6 °C 1026.3 hPa Calm   3.5 km/h 99% 0 mm
08:05 5 °C 4.8 °C 1026 hPa Calm   3.5 km/h 99% 0 mm
08:06 5.3 °C 5.2 °C 1026 hPa Calm   3.5 km/h 99% 0 mm
08:07 5.3 °C 5.2 °C 1026 hPa Calm   3.5 km/h 99% 0 mm
08:08 5.4 °C 5.2 °C 1026.3 hPa NE 1.1 km/h 3.5 km/h 99% 0 mm
08:09 5.5 °C 5.3 °C 1026.3 hPa ENE 1.1 km/h 3.5 km/h 99% 0 mm
08:10 5.5 °C 5.3 °C 1026.3 hPa ENE 2.6 km/h 3.5 km/h 99% 0 mm
08:12 5.7 °C 5.6 °C 1026.3 hPa ENE 1.1 km/h 3.5 km/h 99% 0 mm
08:14 6 °C 5.8 °C 1026.3 hPa ENE 1.1 km/h 3.5 km/h 99% 0 mm
08:16 6.1 °C 5.9 °C 1026.3 hPa Calm   3.5 km/h 99% 0 mm
08:17 6.4 °C 6.2 °C 1026.3 hPa Calm   3.5 km/h 99% 0 mm
08:19 6.4 °C 6.3 °C 1026.6 hPa Calm   3.5 km/h 99% 0 mm
08:20 6.4 °C 6.3 °C 1026.3 hPa Calm   3.5 km/h 99% 0 mm
08:21 6.6 °C 6.4 °C 1026.6 hPa Calm   3.5 km/h 99% 0 mm
08:23 6.6 °C 6.4 °C 1026.6 hPa Calm   3.5 km/h 99% 0 mm
08:24 6.8 °C 6.6 °C 1026.3 hPa Calm   2.6 km/h 99% 0 mm
08:25 6.8 °C 6.6 °C 1026.3 hPa Calm   2.6 km/h 99% 0 mm
08:26 6.9 °C 6.8 °C 1026.3 hPa NNE 1.1 km/h 3.5 km/h 99% 0 mm
08:28 7.2 °C 7 °C 1026.6 hPa NE 2.6 km/h 3.5 km/h 99% 0 mm
08:29 7.3 °C 7.2 °C 1026.3 hPa NE 2.6 km/h 3.5 km/h 99% 0 mm
08:30 7.6 °C 7.4 °C 1026.3 hPa NE 1.1 km/h 3.5 km/h 99% 0 mm
08:32 7.7 °C 7.6 °C 1026.6 hPa ENE 1.1 km/h 3.5 km/h 99% 0 mm
08:33 7.7 °C 7.6 °C 1026.6 hPa ENE 1.1 km/h 3.5 km/h 99% 0 mm
08:34 7.8 °C 7.7 °C 1026.6 hPa Calm   3.5 km/h 99% 0 mm
08:35 7.9 °C 7.8 °C 1026.6 hPa ENE 1.1 km/h 3.5 km/h 99% 0 mm
08:37 8.1 °C 8 °C 1026.6 hPa East 1.1 km/h 3.5 km/h 99% 0 mm
08:38 8.2 °C 8.1 °C 1026.6 hPa Calm   3.5 km/h 99% 0 mm
08:39 8.3 °C 8.2 °C 1026.6 hPa East 1.1 km/h 3.5 km/h 99% 0 mm
08:40 8.4 °C 8.3 °C 1026.6 hPa East 1.1 km/h 3.5 km/h 99% 0 mm
08:41 8.5 °C 8.4 °C 1026.6 hPa Calm   3.5 km/h 99% 0 mm
08:43 8.7 °C 8.6 °C 1026.3 hPa East 1.1 km/h 3.5 km/h 99% 0 mm
08:45 8.9 °C 8.8 °C 1026.6 hPa Calm   3.5 km/h 99% 0 mm
08:46 9 °C 8.9 °C 1026.3 hPa Calm   3.5 km/h 99% 0 mm
08:49 9.2 °C 9.1 °C 1026.6 hPa Calm   3.5 km/h 99% 0 mm
08:50 9.3 °C 9.2 °C 1026.6 hPa Calm   2.6 km/h 99% 0 mm
08:52 9.3 °C 9.2 °C 1026.6 hPa ESE 1.1 km/h 3.5 km/h 99% 0 mm
08:55 9.6 °C 9.4 °C 1026.6 hPa ESE 1.1 km/h 3.5 km/h 99% 0 mm
08:58 9.9 °C 9.8 °C 1027 hPa East 1.1 km/h 3.5 km/h 99% 0 mm
08:59 10 °C 9.8 °C 1027 hPa East 1.1 km/h 3.5 km/h 99% 0 mm
09:00 10.1 °C 9.9 °C 1026.6 hPa East 1.1 km/h 3.5 km/h 99% 0 mm
09:01 10.1 °C 9.9 °C 1026.6 hPa ENE 2.6 km/h 3.5 km/h 99% 0 mm
09:05 10.5 °C 10.3 °C 1026.6 hPa ENE 1.1 km/h 3.5 km/h 99% 0 mm
09:06 10.6 °C 10.3 °C 1026.6 hPa Calm   3.5 km/h 98% 0 mm
09:10 10.9 °C 10.4 °C 1026.6 hPa ENE 1.1 km/h 3.5 km/h 97% 0 mm
09:11 11 °C 10.5 °C 1026.6 hPa Calm   3.5 km/h 97% 0 mm
09:15 11.2 °C 10.4 °C 1027 hPa Calm   3.5 km/h 95% 0 mm
09:16 11.2 °C 10.2 °C 1026.6 hPa East 1.1 km/h 3.5 km/h 94% 0 mm
09:17 11.2 °C 10.1 °C 1027 hPa ESE 1.1 km/h 3.5 km/h 93% 0 mm
09:21 11.6 °C 10.6 °C 1026.6 hPa Calm   3.5 km/h 94% 0 mm
09:22 11.7 °C 10.7 °C 1027 hPa Calm   3.5 km/h 94% 0 mm
09:23 11.8 °C 10.7 °C 1026.6 hPa Calm   3.5 km/h 93% 0 mm
09:26 12.1 °C 10.9 °C 1026.6 hPa ESE 2.6 km/h 5 km/h 93% 0 mm
09:27 12.2 °C 11.1 °C 1026.6 hPa East 1.1 km/h 5 km/h 93% 0 mm
09:28 12.2 °C 11 °C 1026.6 hPa East 1.1 km/h 5 km/h 92% 0 mm
09:31 12.6 °C 11.3 °C 1026.6 hPa Calm   5 km/h 92% 0 mm
09:32 12.7 °C 11.4 °C 1026.6 hPa ENE 2.6 km/h 5 km/h 92% 0 mm
09:33 12.8 °C 11.6 °C 1026.6 hPa ENE 2.6 km/h 5 km/h 92% 0 mm
09:34 12.9 °C 11.7 °C 1027 hPa ENE 1.1 km/h 5 km/h 92% 0 mm
09:36 13.1 °C 11.7 °C 1027 hPa NE 2.6 km/h 5 km/h 91% 0 mm
09:37 13.2 °C 11.8 °C 1027 hPa NE 1.1 km/h 3.5 km/h 91% 0 mm
09:39 13.5 °C 11.8 °C 1026.6 hPa Calm   5 km/h 89% 0 mm
09:40 13.5 °C 11.8 °C 1026.6 hPa Calm   5 km/h 89% 0 mm
09:41 13.7 °C 11.8 °C 1027 hPa Calm   5 km/h 88% 0 mm
09:42 13.7 °C 11.6 °C 1027 hPa NE 2.6 km/h 5 km/h 87% 0 mm
09:45 14 °C 11.6 °C 1027 hPa ENE 1.1 km/h 5 km/h 85% 0 mm
09:47 14.1 °C 11.4 °C 1027 hPa East 1.1 km/h 5 km/h 84% 0 mm
09:50 14.4 °C 11.6 °C 1026.6 hPa East 2.6 km/h 5 km/h 83% 0 mm
09:51 14.4 °C 11.6 °C 1026.6 hPa East 2.6 km/h 5 km/h 83% 0 mm
09:52 14.5 °C 11.7 °C 1027 hPa East 2.6 km/h 5 km/h 83% 0 mm
09:53 14.6 °C 11.8 °C 1026.6 hPa East 2.6 km/h 6.1 km/h 83% 0 mm
09:54 14.6 °C 11.2 °C 1027 hPa East 2.6 km/h 6.1 km/h 80% 0 mm
09:55 14.7 °C 11.3 °C 1026.6 hPa East 2.6 km/h 6.1 km/h 80% 0 mm
09:57 14.7 °C 11.3 °C 1027 hPa East 1.1 km/h 6.1 km/h 80% 0 mm
09:58 14.8 °C 11.4 °C 1026.6 hPa East 1.1 km/h 6.1 km/h 80% 0 mm
09:59 14.8 °C 11.4 °C 1026.6 hPa Calm   6.1 km/h 80% 0 mm
10:00 14.9 °C 11.3 °C 1027 hPa East 3.5 km/h 6.1 km/h 79% 0 mm
10:01 14.9 °C 11.3 °C 1027 hPa East 3.5 km/h 6.1 km/h 79% 0 mm
10:02 15 °C 11.4 °C 1026.6 hPa East 1.1 km/h 6.1 km/h 79% 0 mm
10:03 15 °C 11.2 °C 1027 hPa ESE 3.5 km/h 6.1 km/h 78% 0 mm
10:05 15.1 °C 11.1 °C 1027 hPa ESE 2.6 km/h 6.1 km/h 77% 0 mm
10:06 15.1 °C 11.1 °C 1027 hPa ESE 1.1 km/h 6.1 km/h 77% 0 mm
10:08 15.2 °C 11.2 °C 1026.6 hPa Calm   6.1 km/h 77% 0 mm
10:11 15.5 °C 11.7 °C 1027 hPa ESE 3.5 km/h 7.2 km/h 78% 0 mm
10:12 15.5 °C 11.5 °C 1027 hPa East 3.5 km/h 7.2 km/h 77% 0 mm
10:13 15.7 °C 11.7 °C 1026.6 hPa East 2.6 km/h 7.2 km/h 77% 0 mm
10:14 15.7 °C 11.7 °C 1026.6 hPa East 3.5 km/h 7.2 km/h 77% 0 mm
10:16 15.8 °C 11.6 °C 1026.6 hPa ENE 2.6 km/h 7.2 km/h 76% 0 mm
10:17 15.8 °C 11.2 °C 1027 hPa ENE 3.5 km/h 7.2 km/h 74% 0 mm
10:19 15.8 °C 10.9 °C 1027 hPa ENE 2.6 km/h 7.2 km/h 73% 0 mm
10:21 15.8 °C 10.9 °C 1027 hPa East 2.6 km/h 7.2 km/h 73% 0 mm
10:22 15.8 °C 10.9 °C 1027 hPa East 2.6 km/h 7.2 km/h 73% 0 mm
10:24 15.9 °C 11.1 °C 1027 hPa ESE 3.5 km/h 7.2 km/h 73% 0 mm
10:25 16 °C 10.9 °C 1027 hPa ESE 3.5 km/h 7.2 km/h 72% 0 mm
10:27 16 °C 10.9 °C 1027 hPa ESE 3.5 km/h 7.2 km/h 72% 0 mm
10:29 16.1 °C 11.1 °C 1026.6 hPa ESE 2.6 km/h 7.2 km/h 72% 0 mm
10:30 16.1 °C 11.1 °C 1026.6 hPa ESE 2.6 km/h 7.2 km/h 72% 0 mm
10:32 16.2 °C 10.5 °C 1026.6 hPa ESE 2.6 km/h 7.2 km/h 69% 0 mm
10:33 16.2 °C 10.5 °C 1026.6 hPa Calm   7.2 km/h 69% 0 mm
10:35 16.3 °C 10.8 °C 1026.6 hPa Calm   7.2 km/h 70% 0 mm
10:36 16.3 °C 11 °C 1026.6 hPa ESE 2.6 km/h 7.2 km/h 71% 0 mm
10:37 16.4 °C 10.9 °C 1026.6 hPa East 3.5 km/h 7.2 km/h 70% 0 mm
10:38 16.4 °C 11 °C 1026.6 hPa ESE 2.6 km/h 7.2 km/h 70% 0 mm
10:40 16.6 °C 11.1 °C 1026.6 hPa ESE 2.6 km/h 7.2 km/h 70% 0 mm
10:43 16.8 °C 10.6 °C 1026.6 hPa ESE 2.6 km/h 6.1 km/h 67% 0 mm
10:44 16.8 °C 10.2 °C 1026.6 hPa SE 2.6 km/h 6.1 km/h 65% 0 mm
10:45 16.8 °C 10 °C 1026.6 hPa ESE 3.5 km/h 6.1 km/h 64% 0 mm
10:46 16.8 °C 10.2 °C 1026.6 hPa ESE 5 km/h 7.2 km/h 65% 0 mm
10:49 17.1 °C 10.9 °C 1026.6 hPa East 3.5 km/h 7.2 km/h 67% 0 mm
10:51 17.2 °C 10.8 °C 1026.6 hPa East 3.5 km/h 7.2 km/h 66% 0 mm
10:52 17.2 °C 10.6 °C 1026.6 hPa East 1.1 km/h 7.2 km/h 65% 0 mm
10:54 17.3 °C 10.5 °C 1026.6 hPa East 2.6 km/h 7.2 km/h 64% 0 mm
10:57 17.3 °C 10.2 °C 1026.6 hPa East 2.6 km/h 9.7 km/h 63% 0 mm
10:59 17.4 °C 10.3 °C 1026.6 hPa East 2.6 km/h 9.7 km/h 63% 0 mm
11:00 17.6 °C 10.7 °C 1026.6 hPa East 3.5 km/h 9.7 km/h 64% 0 mm
11:02 17.6 °C 10.4 °C 1026.6 hPa East 2.6 km/h 9.7 km/h 63% 0 mm
11:04 17.7 °C 10.1 °C 1026.6 hPa East 1.1 km/h 9.7 km/h 61% 0 mm
11:05 17.7 °C 10.1 °C 1026.6 hPa ESE 3.5 km/h 8.7 km/h 61% 0 mm
11:07 17.7 °C 9.6 °C 1026.6 hPa East 7.2 km/h 11.1 km/h 59% 0 mm
11:08 17.7 °C 9.6 °C 1026.6 hPa ESE 5 km/h 11.1 km/h 59% 0 mm
11:09 17.6 °C 9.4 °C 1026.6 hPa ESE 2.6 km/h 11.1 km/h 59% 0 mm
11:11 17.6 °C 9.7 °C 1026.6 hPa ESE 2.6 km/h 11.1 km/h 60% 0 mm
11:12 17.6 °C 9.7 °C 1027 hPa ESE 2.6 km/h 11.1 km/h 60% 0 mm
11:13 17.7 °C 10.1 °C 1026.6 hPa ESE 2.6 km/h 11.1 km/h 61% 0 mm
11:14 17.7 °C 9.8 °C 1026.6 hPa ESE 7.2 km/h 11.1 km/h 60% 0 mm
11:15 17.7 °C 9.3 °C 1026.6 hPa ESE 6.1 km/h 11.1 km/h 58% 0 mm
11:16 17.7 °C 9.6 °C 1027 hPa ESE 3.5 km/h 11.1 km/h 59% 0 mm
11:17 17.6 °C 9.2 °C 1026.6 hPa SE 2.6 km/h 9.7 km/h 58% 0 mm
11:18 17.6 °C 9.4 °C 1026.6 hPa SE 3.5 km/h 9.7 km/h 59% 0 mm
11:19 17.6 °C 9.4 °C 1026.6 hPa Calm   9.7 km/h 59% 0 mm
11:20 17.7 °C 9.6 °C 1026.6 hPa SE 2.6 km/h 9.7 km/h 59% 0 mm
11:21 17.6 °C 9.2 °C 1026.3 hPa SSE 6.1 km/h 11.1 km/h 58% 0 mm
11:23 17.4 °C 9.3 °C 1026.6 hPa SE 3.5 km/h 11.1 km/h 59% 0 mm
11:24 17.4 °C 9.3 °C 1026.3 hPa SE 2.6 km/h 11.1 km/h 59% 0 mm
11:25 17.4 °C 9.6 °C 1026.6 hPa SE 3.5 km/h 11.1 km/h 60% 0 mm
11:27 17.6 °C 9.9 °C 1026.6 hPa SE 2.6 km/h 11.1 km/h 61% 0 mm
11:28 17.7 °C 9.8 °C 1026.6 hPa SE 5 km/h 11.1 km/h 60% 0 mm
11:29 17.7 °C 10.1 °C 1026.6 hPa Calm   11.1 km/h 61% 0 mm
11:30 17.7 °C 9.9 °C 1026.3 hPa SSE 3.5 km/h 11.1 km/h 60% 0 mm
11:31 17.7 °C 9.9 °C 1026.6 hPa SSE 3.5 km/h 11.1 km/h 60% 0 mm
11:32 17.7 °C 9.6 °C 1026.6 hPa South 5 km/h 8.7 km/h 59% 0 mm
11:34 17.7 °C 9.4 °C 1026.3 hPa SSW 7.2 km/h 9.7 km/h 58% 0 mm
11:35 17.7 °C 9.6 °C 1026.3 hPa SSW 5 km/h 11.1 km/h 59% 0 mm
11:36 17.7 °C 9.3 °C 1026.3 hPa SSW 6.1 km/h 11.1 km/h 58% 0 mm
11:38 17.7 °C 9.3 °C 1026.6 hPa South 2.6 km/h 11.1 km/h 58% 0 mm
11:39 17.7 °C 9.3 °C 1026.6 hPa South 2.6 km/h 11.1 km/h 58% 0 mm
11:41 17.7 °C 9.3 °C 1026.6 hPa South 3.5 km/h 11.1 km/h 58% 0 mm
11:44 17.7 °C 9 °C 1026.6 hPa SSE 3.5 km/h 11.1 km/h 57% 0 mm
11:45 17.7 °C 8.8 °C 1026.3 hPa SSE 6.1 km/h 11.1 km/h 56% 0 mm
11:46 17.6 °C 8.7 °C 1026.3 hPa SSE 3.5 km/h 9.7 km/h 56% 0 mm
11:47 17.6 °C 8.9 °C 1026.3 hPa SSE 2.6 km/h 9.7 km/h 57% 0 mm
11:49 17.7 °C 9.3 °C 1026.3 hPa SSE 5 km/h 8.7 km/h 58% 0 mm
11:50 17.7 °C 8.8 °C 1026.3 hPa SSE 1.1 km/h 8.7 km/h 56% 0 mm
11:51 17.7 °C 9 °C 1026.3 hPa SSE 2.6 km/h 8.7 km/h 57% 0 mm
11:52 17.7 °C 9.1 °C 1026.3 hPa SSE 5 km/h 8.7 km/h 57% 0 mm
11:53 17.7 °C 8.8 °C 1026.3 hPa SSE 6.1 km/h 8.7 km/h 56% 0 mm
11:54 17.7 °C 8.6 °C 1026.3 hPa SSE 3.5 km/h 8.7 km/h 55% 0 mm
11:55 17.7 °C 8.6 °C 1026.3 hPa SSE 7.2 km/h 11.1 km/h 55% 0 mm
11:56 17.7 °C 8.6 °C 1026.3 hPa SSE 3.5 km/h 11.1 km/h 55% 0 mm
11:58 17.7 °C 8.5 °C 1026.3 hPa Calm   11.1 km/h 55% 0 mm
12:00 17.7 °C 9 °C 1026 hPa SSE 3.5 km/h 11.1 km/h 57% 0 mm
12:01 17.7 °C 9 °C 1026 hPa SSE 2.6 km/h 11.1 km/h 57% 0 mm
12:03 17.8 °C 8.9 °C 1026 hPa SSE 3.5 km/h 11.1 km/h 56% 0 mm
12:05 17.8 °C 8.9 °C 1026 hPa SSE 5 km/h 11.1 km/h 56% 0 mm
12:07 17.8 °C 8.9 °C 1026 hPa SSE 7.2 km/h 11.1 km/h 56% 0 mm
12:08 17.8 °C 8.7 °C 1026 hPa SSE 5 km/h 11.1 km/h 55% 0 mm
12:09 17.8 °C 8.7 °C 1026 hPa SSE 7.2 km/h 11.1 km/h 55% 0 mm
12:10 17.8 °C 8.9 °C 1026 hPa SSE 2.6 km/h 11.1 km/h 56% 0 mm
12:12 17.8 °C 8.9 °C 1026 hPa SSE 2.6 km/h 11.1 km/h 56% 0 mm
12:14 17.9 °C 9.3 °C 1026 hPa Calm   11.1 km/h 57% 0 mm
12:15 17.9 °C 9.1 °C 1026.3 hPa SSE 3.5 km/h 11.1 km/h 56% 0 mm
12:16 18.1 °C 8.9 °C 1026 hPa SSE 6.1 km/h 11.1 km/h 55% 0 mm
12:17 18.1 °C 9.1 °C 1026 hPa SSE 5 km/h 9.7 km/h 56% 0 mm
12:19 18.1 °C 9.4 °C 1026 hPa SE 5 km/h 9.7 km/h 57% 0 mm
12:20 18.1 °C 9.1 °C 1026 hPa SE 5 km/h 9.7 km/h 56% 0 mm
12:21 18.1 °C 9.1 °C 1026 hPa SE 5 km/h 9.7 km/h 56% 0 mm
12:23 18.3 °C 9.4 °C 1026 hPa SE 3.5 km/h 9.7 km/h 56% 0 mm
12:25 18.1 °C 9.2 °C 1026 hPa SE 6.1 km/h 13.4 km/h 56% 0 mm
12:26 18.1 °C 9.2 °C 1026 hPa SE 3.5 km/h 13.4 km/h 56% 0 mm
12:28 18.3 °C 9.4 °C 1026 hPa SE 7.2 km/h 13.4 km/h 56% 0 mm
12:30 18.2 °C 9.1 °C 1026 hPa SE 5 km/h 13.4 km/h 55% 0 mm
12:31 18.1 °C 8.9 °C 1025.6 hPa SE 6.1 km/h 13.4 km/h 55% 0 mm
12:32 18.1 °C 9.2 °C 1025.6 hPa SE 5 km/h 13.4 km/h 56% 0 mm
12:34 18.2 °C 9.1 °C 1025.6 hPa SE 5 km/h 13.4 km/h 55% 0 mm
12:35 18.2 °C 9.6 °C 1025.6 hPa SE 3.5 km/h 13.4 km/h 57% 0 mm
12:36 18.2 °C 9.6 °C 1025.6 hPa SE 6.1 km/h 13.4 km/h 57% 0 mm
12:37 18.2 °C 9.6 °C 1025.6 hPa SE 6.1 km/h 13.4 km/h 57% 0 mm
12:39 18.3 °C 9.1 °C 1025.6 hPa SE 6.1 km/h 13.4 km/h 55% 0 mm
12:41 18.3 °C 9.4 °C 1025.3 hPa SE 2.6 km/h 13.4 km/h 56% 0 mm
12:42 18.3 °C 8.9 °C 1025.6 hPa SE 3.5 km/h 12.2 km/h 54% 0 mm
12:43 18.2 °C 8.8 °C 1025.6 hPa SSE 2.6 km/h 12.2 km/h 54% 0 mm
12:44 18.2 °C 9.1 °C 1025.6 hPa SSE 3.5 km/h 11.1 km/h 55% 0 mm
12:46 18.2 °C 9.3 °C 1025.6 hPa SSE 2.6 km/h 11.1 km/h 56% 0 mm
12:47 18.2 °C 9.3 °C 1025.3 hPa SSE 7.2 km/h 11.1 km/h 56% 0 mm
12:48 18.2 °C 9.3 °C 1025.6 hPa South 6.1 km/h 11.1 km/h 56% 0 mm
12:49 18.4 °C 9.5 °C 1025.6 hPa SSE 5 km/h 11.1 km/h 56% 0 mm
12:52 18.3 °C 9.4 °C 1025.6 hPa SSE 5 km/h 11.1 km/h 56% 0 mm
12:53 18.4 °C 9.5 °C 1025.3 hPa SSE 3.5 km/h 11.1 km/h 56% 0 mm
12:55 18.4 °C 9.5 °C 1025.6 hPa SE 3.5 km/h 11.1 km/h 56% 0 mm
12:57 18.2 °C 9.1 °C 1025.3 hPa SE 5 km/h 11.1 km/h 55% 0 mm
12:58 18.2 °C 9.3 °C 1025.3 hPa SE 3.5 km/h 11.1 km/h 56% 0 mm
12:59 18.2 °C 9.3 °C 1025.3 hPa SE 3.5 km/h 9.7 km/h 56% 0 mm
13:00 18.3 °C 9.4 °C 1025.6 hPa SE 2.6 km/h 9.7 km/h 56% 0 mm
13:02 18.2 °C 9.6 °C 1025.3 hPa SE 5 km/h 9.7 km/h 57% 0 mm
13:03 18.3 °C 9.4 °C 1025.3 hPa SE 6.1 km/h 9.7 km/h 56% 0 mm
13:04 18.3 °C 9.4 °C 1025.3 hPa SE 6.1 km/h 9.7 km/h 56% 0 mm
13:05 18.2 °C 9.1 °C 1025.3 hPa SE 3.5 km/h 9.7 km/h 55% 0 mm
13:06 18.2 °C 9.3 °C 1025.3 hPa SE 3.5 km/h 9.7 km/h 56% 0 mm
13:07 18.2 °C 9.3 °C 1025.3 hPa SE 3.5 km/h 9.7 km/h 56% 0 mm
13:09 18.3 °C 9.7 °C 1025.3 hPa ESE 3.5 km/h 9.7 km/h 57% 0 mm
13:11 18.4 °C 9.8 °C 1024.9 hPa ESE 6.1 km/h 17.2 km/h 57% 0 mm
13:12 18.4 °C 9.5 °C 1025.3 hPa ESE 8.7 km/h 17.2 km/h 56% 0 mm
13:14 18.4 °C 9.5 °C 1025.3 hPa ESE 6.1 km/h 17.2 km/h 56% 0 mm
13:15 18.4 °C 9.2 °C 1024.9 hPa ESE 3.5 km/h 17.2 km/h 55% 0 mm
13:16 18.5 °C 9.6 °C 1025.3 hPa ESE 5 km/h 17.2 km/h 56% 0 mm
13:17 18.3 °C 9.1 °C 1024.9 hPa ESE 3.5 km/h 17.2 km/h 55% 0 mm
13:18 18.3 °C 9.1 °C 1024.9 hPa ESE 2.6 km/h 17.2 km/h 55% 0 mm
13:20 18.2 °C 9.3 °C 1024.9 hPa SE 2.6 km/h 17.2 km/h 56% 0 mm
13:21 18.4 °C 9.8 °C 1024.9 hPa SE 2.6 km/h 13.4 km/h 57% 0 mm
13:22 18.3 °C 9.4 °C 1024.9 hPa SE 2.6 km/h 13.4 km/h 56% 0 mm
13:23 18.3 °C 9.7 °C 1024.9 hPa SE 5 km/h 9.7 km/h 57% 0 mm
13:25 18.4 °C 9.5 °C 1024.9 hPa ESE 5 km/h 13.4 km/h 56% 0 mm
13:26 18.4 °C 9.5 °C 1024.9 hPa ESE 2.6 km/h 13.4 km/h 56% 0 mm
13:27 18.4 °C 9.5 °C 1024.9 hPa ESE 2.6 km/h 13.4 km/h 56% 0 mm
13:28 18.4 °C 9.5 °C 1024.9 hPa ESE 5 km/h 13.4 km/h 56% 0 mm
13:30 18.5 °C 9.6 °C 1024.9 hPa ESE 3.5 km/h 13.4 km/h 56% 0 mm
13:32 18.5 °C 9.6 °C 1024.9 hPa ESE 3.5 km/h 13.4 km/h 56% 0 mm
13:33 18.5 °C 9.6 °C 1024.9 hPa ESE 3.5 km/h 13.4 km/h 56% 0 mm
13:35 18.5 °C 9.8 °C 1024.9 hPa East 2.6 km/h 12.2 km/h 57% 0 mm
13:37 18.6 °C 9.9 °C 1024.9 hPa East 3.5 km/h 12.2 km/h 57% 0 mm
13:38 18.6 °C 9.7 °C 1024.9 hPa East 3.5 km/h 12.2 km/h 56% 0 mm
13:39 18.7 °C 9.8 °C 1024.9 hPa East 3.5 km/h 12.2 km/h 56% 0 mm
13:40 18.6 °C 9.7 °C 1024.9 hPa East 3.5 km/h 9.7 km/h 56% 0 mm
13:43 18.6 °C 9.4 °C 1024.9 hPa ESE 3.5 km/h 11.1 km/h 55% 0 mm
13:44 18.6 °C 9.4 °C 1024.9 hPa ESE 5 km/h 11.1 km/h 55% 0 mm
13:45 18.6 °C 9.7 °C 1024.9 hPa SE 5 km/h 11.1 km/h 56% 0 mm
13:46 18.6 °C 9.7 °C 1024.9 hPa SE 3.5 km/h 11.1 km/h 56% 0 mm
13:48 18.7 °C 9.8 °C 1024.9 hPa SE 2.6 km/h 11.1 km/h 56% 0 mm
13:49 18.7 °C 10.1 °C 1024.9 hPa SE 3.5 km/h 11.1 km/h 57% 0 mm
13:50 18.7 °C 9.8 °C 1024.9 hPa SE 3.5 km/h 11.1 km/h 56% 0 mm
13:53 18.7 °C 9.2 °C 1024.9 hPa SSE 3.5 km/h 11.1 km/h 54% 0 mm
13:54 18.6 °C 9.7 °C 1024.9 hPa SSE 2.6 km/h 11.1 km/h 56% 0 mm
13:55 18.6 °C 9.4 °C 1024.9 hPa SSE 6.1 km/h 11.1 km/h 55% 0 mm
13:56 18.6 °C 9.4 °C 1024.9 hPa SSE 6.1 km/h 11.1 km/h 55% 0 mm
13:58 18.6 °C 9.4 °C 1024.9 hPa SSE 7.2 km/h 11.1 km/h 55% 0 mm
13:59 18.5 °C 9.6 °C 1024.9 hPa SSE 5 km/h 11.1 km/h 56% 0 mm
14:00 18.5 °C 9.3 °C 1024.9 hPa SSE 7.2 km/h 11.1 km/h 55% 0 mm
14:01 18.5 °C 9.3 °C 1024.9 hPa SSE 7.2 km/h 11.1 km/h 55% 0 mm
14:06 18.4 °C 9.5 °C 1024.9 hPa South 5 km/h 11.1 km/h 56% 0 mm
14:07 18.4 °C 9.5 °C 1024.9 hPa South 2.6 km/h 11.1 km/h 56% 0 mm
14:08 18.4 °C 9.8 °C 1024.9 hPa South 5 km/h 11.1 km/h 57% 0 mm
14:12 18.6 °C 9.7 °C 1024.9 hPa SSE 6.1 km/h 12.2 km/h 56% 0 mm
14:13 18.5 °C 9.6 °C 1024.9 hPa SSE 2.6 km/h 12.2 km/h 56% 0 mm
14:17 18.5 °C 9.8 °C 1024.9 hPa SSE 2.6 km/h 12.2 km/h 57% 0 mm
14:18 18.5 °C 9.8 °C 1024.9 hPa SSE 2.6 km/h 12.2 km/h 57% 0 mm
14:19 18.5 °C 9.8 °C 1024.9 hPa SSE 3.5 km/h 12.2 km/h 57% 0 mm
14:22 18.6 °C 9.9 °C 1024.9 hPa SSE 9.7 km/h 14.8 km/h 57% 0 mm
14:23 18.5 °C 9.6 °C 1024.9 hPa SSE 6.1 km/h 14.8 km/h 56% 0 mm
14:24 18.5 °C 9.6 °C 1024.9 hPa SSE 6.1 km/h 14.8 km/h 56% 0 mm
14:25 18.5 °C 9.6 °C 1024.9 hPa SSE 12.2 km/h 19.5 km/h 56% 0 mm
14:27 18.4 °C 9.8 °C 1024.9 hPa SSE 6.1 km/h 19.5 km/h 57% 0 mm
14:28 18.4 °C 9.8 °C 1024.9 hPa SSE 7.2 km/h 19.5 km/h 57% 0 mm
14:29 18.4 °C 9.8 °C 1024.9 hPa SSE 7.2 km/h 19.5 km/h 57% 0 mm
14:30 18.4 °C 9.5 °C 1024.9 hPa SSE 8.7 km/h 19.5 km/h 56% 0 mm
14:31 18.4 °C 9.8 °C 1024.9 hPa South 6.1 km/h 19.5 km/h 57% 0 mm
14:32 18.4 °C 9.5 °C 1024.9 hPa South 5 km/h 19.5 km/h 56% 0 mm
14:34 18.4 °C 9.8 °C 1024.9 hPa South 5 km/h 19.5 km/h 57% 0 mm
14:35 18.4 °C 9.8 °C 1024.9 hPa South 7.2 km/h 19.5 km/h 57% 0 mm
14:36 18.4 °C 9.5 °C 1024.9 hPa South 6.1 km/h 14.8 km/h 56% 0 mm
14:37 18.4 °C 9.5 °C 1024.9 hPa South 8.7 km/h 13.4 km/h 56% 0 mm
14:38 18.4 °C 9.5 °C 1024.9 hPa South 8.7 km/h 13.4 km/h 56% 0 mm
14:39 18.4 °C 9.5 °C 1024.9 hPa South 11.1 km/h 15.8 km/h 56% 0 mm
14:40 18.3 °C 9.4 °C 1024.9 hPa South 7.2 km/h 15.8 km/h 56% 0 mm
14:41 18.3 °C 9.4 °C 1024.9 hPa South 6.1 km/h 15.8 km/h 56% 0 mm
14:42 18.3 °C 9.4 °C 1024.9 hPa SSE 7.2 km/h 15.8 km/h 56% 0 mm
14:43 18.3 °C 9.4 °C 1024.9 hPa SSE 7.2 km/h 15.8 km/h 56% 0 mm
14:44 18.3 °C 9.4 °C 1024.9 hPa SSE 8.7 km/h 15.8 km/h 56% 0 mm
14:45 18.2 °C 9.3 °C 1024.6 hPa SSE 1.1 km/h 15.8 km/h 56% 0 mm
14:46 18.3 °C 9.7 °C 1024.6 hPa SSE 5 km/h 15.8 km/h 57% 0 mm
14:47 18.3 °C 9.7 °C 1024.9 hPa SSE 3.5 km/h 15.8 km/h 57% 0 mm
14:48 18.3 °C 9.7 °C 1024.9 hPa SE 6.1 km/h 15.8 km/h 57% 0 mm
14:50 18.4 °C 9.8 °C 1024.9 hPa SE 3.5 km/h 12.2 km/h 57% 0 mm
14:51 18.4 °C 9.8 °C 1024.9 hPa SE 6.1 km/h 12.2 km/h 57% 0 mm
14:52 18.4 °C 9.8 °C 1024.9 hPa SE 7.2 km/h 15.8 km/h 57% 0 mm
14:54 18.4 °C 9.8 °C 1024.9 hPa SE 6.1 km/h 15.8 km/h 57% 0 mm
14:55 18.4 °C 9.8 °C 1024.9 hPa SE 3.5 km/h 15.8 km/h 57% 0 mm
14:56 18.5 °C 9.8 °C 1024.9 hPa SE 7.2 km/h 15.8 km/h 57% 0 mm
14:57 18.5 °C 9.3 °C 1024.9 hPa SE 9.7 km/h 15.8 km/h 55% 0 mm
14:58 18.4 °C 9.2 °C 1024.9 hPa SE 7.2 km/h 15.8 km/h 55% 0 mm
14:59 18.4 °C 9.5 °C 1024.9 hPa SSE 5 km/h 15.8 km/h 56% 0 mm
15:01 18.3 °C 9.1 °C 1024.9 hPa SSE 8.7 km/h 15.8 km/h 55% 0 mm
15:02 18.3 °C 9.4 °C 1024.9 hPa SE 3.5 km/h 15.8 km/h 56% 0 mm
15:03 18.3 °C 9.7 °C 1024.9 hPa SE 3.5 km/h 14.8 km/h 57% 0 mm
15:05 18.3 °C 9.7 °C 1024.9 hPa SSE 6.1 km/h 14.8 km/h 57% 0 mm
15:07 18.2 °C 9.6 °C 1024.9 hPa SSE 7.2 km/h 18.3 km/h 57% 0 mm
15:08 18.3 °C 9.7 °C 1024.9 hPa SSE 6.1 km/h 18.3 km/h 57% 0 mm
15:10 18.2 °C 9.6 °C 1024.9 hPa SSE 6.1 km/h 18.3 km/h 57% 0 mm
15:12 18.1 °C 9.5 °C 1024.9 hPa SSE 7.2 km/h 18.3 km/h 57% 0 mm
15:13 18.1 °C 9.5 °C 1024.9 hPa SSE 7.2 km/h 18.3 km/h 57% 0 mm
15:14 18.1 °C 9.5 °C 1024.9 hPa SSE 6.1 km/h 18.3 km/h 57% 0 mm
15:15 18.1 °C 9.5 °C 1024.9 hPa SSE 6.1 km/h 18.3 km/h 57% 0 mm
15:17 18.2 °C 9.6 °C 1024.9 hPa SSE 3.5 km/h 15.8 km/h 57% 0 mm
15:18 18.1 °C 9.5 °C 1024.9 hPa South 7.2 km/h 15.8 km/h 57% 0 mm
15:19 18.1 °C 9.5 °C 1024.9 hPa South 7.2 km/h 15.8 km/h 57% 0 mm
15:21 18.1 °C 9.7 °C 1024.9 hPa South 3.5 km/h 13.4 km/h 58% 0 mm
15:22 18.1 °C 9.7 °C 1024.9 hPa SSE 5 km/h 12.2 km/h 58% 0 mm
15:23 18.2 °C 9.8 °C 1024.9 hPa SSE 9.7 km/h 15.8 km/h 58% 0 mm
15:25 18.1 °C 9.7 °C 1024.9 hPa SSE 7.2 km/h 15.8 km/h 58% 0 mm
15:26 18.2 °C 9.8 °C 1024.9 hPa SSE 7.2 km/h 15.8 km/h 58% 0 mm
15:28 18.1 °C 10 °C 1024.9 hPa SSE 7.2 km/h 15.8 km/h 59% 0 mm
15:29 18.2 °C 9.8 °C 1024.9 hPa SSE 7.2 km/h 15.8 km/h 58% 0 mm
15:31 18.2 °C 10.1 °C 1024.9 hPa SSE 7.2 km/h 15.8 km/h 59% 0 mm
15:32 18.1 °C 9.7 °C 1024.9 hPa SSE 7.2 km/h 15.8 km/h 58% 0 mm
15:33 18.1 °C 9.7 °C 1024.9 hPa SSE 3.5 km/h 15.8 km/h 58% 0 mm
15:35 18.1 °C 9.7 °C 1024.9 hPa SSE 3.5 km/h 12.2 km/h 58% 0 mm
15:36 18.1 °C 9.7 °C 1024.9 hPa SSE 3.5 km/h 12.2 km/h 58% 0 mm
15:37 18.1 °C 9.7 °C 1024.9 hPa SSE 5 km/h 12.2 km/h 58% 0 mm
15:38 18.1 °C 9.7 °C 1024.9 hPa SE 7.2 km/h 14.8 km/h 58% 0 mm
15:39 18.1 °C 9.7 °C 1024.9 hPa SSE 7.2 km/h 14.8 km/h 58% 0 mm
15:41 18.1 °C 9.9 °C 1024.9 hPa SSE 6.1 km/h 14.8 km/h 59% 0 mm
15:42 18.1 °C 10 °C 1024.9 hPa SSE 5 km/h 14.8 km/h 59% 0 mm
15:43 18.1 °C 9.7 °C 1024.9 hPa SSE 8.7 km/h 14.8 km/h 58% 0 mm
15:45 18.2 °C 9.8 °C 1024.9 hPa SSE 6.1 km/h 14.8 km/h 58% 0 mm
15:46 18.1 °C 9.7 °C 1024.9 hPa South 7.2 km/h 14.8 km/h 58% 0 mm
15:47 18.1 °C 9.7 °C 1024.9 hPa South 5 km/h 14.8 km/h 58% 0 mm
15:49 18.1 °C 9.7 °C 1024.9 hPa SSW 5 km/h 14.8 km/h 58% 0 mm
15:50 18.1 °C 10 °C 1024.9 hPa SSW 3.5 km/h 13.4 km/h 59% 0 mm
15:51 18.1 °C 9.7 °C 1024.9 hPa SSW 6.1 km/h 13.4 km/h 58% 0 mm
15:52 18.1 °C 9.7 °C 1024.9 hPa SSW 3.5 km/h 13.4 km/h 58% 0 mm
15:53 18.1 °C 9.7 °C 1024.9 hPa SSW 3.5 km/h 13.4 km/h 58% 0 mm
15:54 18.1 °C 9.7 °C 1024.9 hPa SSW 7.2 km/h 13.4 km/h 58% 0 mm
15:55 18.1 °C 9.7 °C 1024.9 hPa SSW 7.2 km/h 12.2 km/h 58% 0 mm
15:56 18.1 °C 9.9 °C 1024.9 hPa South 6.1 km/h 12.2 km/h 59% 0 mm
15:57 18.1 °C 9.9 °C 1025.3 hPa South 7.2 km/h 12.2 km/h 59% 0 mm
15:59 18.1 °C 9.7 °C 1024.9 hPa SSE 6.1 km/h 12.2 km/h 58% 0 mm
16:00 17.9 °C 9.6 °C 1024.9 hPa South 7.2 km/h 12.2 km/h 58% 0 mm
16:02 17.9 °C 9.6 °C 1024.9 hPa South 6.1 km/h 13.4 km/h 58% 0 mm
16:03 17.8 °C 9.4 °C 1024.9 hPa South 3.5 km/h 13.4 km/h 58% 0 mm
16:04 17.8 °C 9.7 °C 1024.9 hPa South 6.1 km/h 13.4 km/h 59% 0 mm
16:05 17.8 °C 9.7 °C 1024.9 hPa South 6.1 km/h 13.4 km/h 59% 0 mm
16:06 17.8 °C 9.7 °C 1024.9 hPa SSE 6.1 km/h 13.4 km/h 59% 0 mm
16:08 17.8 °C 9.7 °C 1024.9 hPa SSE 5 km/h 13.4 km/h 59% 0 mm
16:09 17.8 °C 9.4 °C 1025.3 hPa SSE 7.2 km/h 13.4 km/h 58% 0 mm
16:10 17.7 °C 9.4 °C 1024.9 hPa SSE 7.2 km/h 13.4 km/h 58% 0 mm
16:13 17.7 °C 9.6 °C 1024.9 hPa SSE 7.2 km/h 13.4 km/h 59% 0 mm
16:14 17.7 °C 9.6 °C 1024.9 hPa SSE 5 km/h 13.4 km/h 59% 0 mm
16:15 17.7 °C 9.6 °C 1024.9 hPa SSE 6.1 km/h 13.4 km/h 59% 0 mm
16:16 17.7 °C 9.6 °C 1024.9 hPa SSE 6.1 km/h 13.4 km/h 59% 0 mm
16:19 17.7 °C 9.6 °C 1024.9 hPa SSE 2.6 km/h 11.1 km/h 59% 0 mm
16:20 17.7 °C 9.6 °C 1024.9 hPa SSE 3.5 km/h 9.7 km/h 59% 0 mm
16:21 17.7 °C 9.6 °C 1024.9 hPa SSE 2.6 km/h 9.7 km/h 59% 0 mm
16:24 17.7 °C 9.6 °C 1024.9 hPa SSE 3.5 km/h 9.7 km/h 59% 0 mm
16:25 17.7 °C 9.6 °C 1024.9 hPa SSE 6.1 km/h 9.7 km/h 59% 0 mm
16:26 17.7 °C 9.4 °C 1024.9 hPa SSE 6.1 km/h 9.7 km/h 58% 0 mm
16:30 17.7 °C 9.8 °C 1024.9 hPa SSE 6.1 km/h 11.1 km/h 60% 0 mm
16:31 17.7 °C 9.8 °C 1024.9 hPa SSE 6.1 km/h 11.1 km/h 60% 0 mm
16:32 17.7 °C 9.6 °C 1024.9 hPa SSE 3.5 km/h 11.1 km/h 59% 0 mm
16:36 17.7 °C 9.6 °C 1025.3 hPa SSE 3.5 km/h 11.1 km/h 59% 0 mm
16:37 17.6 °C 9.4 °C 1024.9 hPa SSE 5 km/h 11.1 km/h 59% 0 mm
16:41 17.4 °C 9.3 °C 1024.9 hPa South 3.5 km/h 9.7 km/h 59% 0 mm
16:42 17.4 °C 9.6 °C 1024.9 hPa South 3.5 km/h 9.7 km/h 60% 0 mm
16:46 17.4 °C 9.6 °C 1024.9 hPa SSE 3.5 km/h 9.7 km/h 60% 0 mm
16:47 17.4 °C 9.3 °C 1024.9 hPa SSE 5 km/h 9.7 km/h 59% 0 mm
16:48 17.4 °C 9.3 °C 1024.9 hPa SE 5 km/h 9.7 km/h 59% 0 mm
16:49 17.4 °C 9.6 °C 1024.9 hPa SE 3.5 km/h 9.7 km/h 60% 0 mm
16:52 17.4 °C 9.6 °C 1024.9 hPa SE 2.6 km/h 8.7 km/h 60% 0 mm
16:53 17.4 °C 9.6 °C 1024.9 hPa SE 3.5 km/h 8.7 km/h 60% 0 mm
16:54 17.4 °C 9.6 °C 1024.9 hPa SE 3.5 km/h 8.7 km/h 60% 0 mm
16:56 17.3 °C 9.3 °C 1024.9 hPa SE 5 km/h 8.7 km/h 59% 0 mm
16:57 17.3 °C 9.5 °C 1024.9 hPa SE 3.5 km/h 8.7 km/h 60% 0 mm
16:59 17.3 °C 9.5 °C 1024.9 hPa SE 2.6 km/h 8.7 km/h 60% 0 mm
17:00 17.2 °C 9.4 °C 1024.9 hPa SE 3.5 km/h 8.7 km/h 60% 0 mm
17:01 17.2 °C 9.4 °C 1024.9 hPa SE 6.1 km/h 9.7 km/h 60% 0 mm
17:03 17.2 °C 9.3 °C 1024.9 hPa SE 5 km/h 9.7 km/h 60% 0 mm
17:04 17.2 °C 9.3 °C 1024.9 hPa SSE 3.5 km/h 9.7 km/h 60% 0 mm
17:05 17.2 °C 9.3 °C 1024.9 hPa SSE 3.5 km/h 9.7 km/h 60% 0 mm
17:06 17.1 °C 9.2 °C 1024.9 hPa SSE 3.5 km/h 9.7 km/h 60% 0 mm
17:08 17.1 °C 9.2 °C 1024.9 hPa SSE 2.6 km/h 9.7 km/h 60% 0 mm
17:09 16.9 °C 9.2 °C 1024.9 hPa SSE 3.5 km/h 9.7 km/h 60% 0 mm
17:10 16.9 °C 9.4 °C 1024.9 hPa SSE 2.6 km/h 9.7 km/h 61% 0 mm
17:11 16.9 °C 9.4 °C 1024.9 hPa SSE 3.5 km/h 9.7 km/h 61% 0 mm
17:12 16.9 °C 9.4 °C 1024.9 hPa SSE 2.6 km/h 7.2 km/h 61% 0 mm
17:14 16.8 °C 9.3 °C 1024.9 hPa SSE 3.5 km/h 7.2 km/h 61% 0 mm
17:15 16.8 °C 9.1 °C 1025.3 hPa South 5 km/h 7.2 km/h 60% 0 mm
17:17 16.8 °C 9.2 °C 1025.3 hPa South 3.5 km/h 7.2 km/h 61% 0 mm
17:19 16.8 °C 9.2 °C 1025.3 hPa South 3.5 km/h 7.2 km/h 61% 0 mm
17:20 16.7 °C 9.1 °C 1025.3 hPa South 3.5 km/h 7.2 km/h 61% 0 mm
17:21 16.7 °C 9.1 °C 1025.3 hPa South 3.5 km/h 7.2 km/h 61% 0 mm
17:22 16.7 °C 9.1 °C 1025.3 hPa South 5 km/h 7.2 km/h 61% 0 mm
17:24 16.6 °C 9 °C 1025.3 hPa South 3.5 km/h 7.2 km/h 61% 0 mm
17:25 16.6 °C 9 °C 1025.3 hPa South 3.5 km/h 7.2 km/h 61% 0 mm
17:27 16.6 °C 9.3 °C 1025.3 hPa South 3.5 km/h 7.2 km/h 62% 0 mm
17:28 16.6 °C 9.3 °C 1025.3 hPa South 3.5 km/h 7.2 km/h 62% 0 mm
17:30 16.4 °C 9.2 °C 1025.3 hPa South 2.6 km/h 7.2 km/h 62% 0 mm
17:33 16.4 °C 9.2 °C 1025.3 hPa South 3.5 km/h 7.2 km/h 62% 0 mm
17:36 16.4 °C 9.3 °C 1025.6 hPa South 2.6 km/h 6.1 km/h 63% 0 mm
17:37 16.3 °C 9.2 °C 1025.6 hPa South 2.6 km/h 6.1 km/h 63% 0 mm
17:38 16.3 °C 9.2 °C 1025.6 hPa South 2.6 km/h 6.1 km/h 63% 0 mm
17:39 16.2 °C 9.1 °C 1025.6 hPa South 2.6 km/h 7.2 km/h 63% 0 mm
17:41 16.2 °C 9.1 °C 1025.6 hPa South 2.6 km/h 7.2 km/h 63% 0 mm
17:42 16.1 °C 9.3 °C 1025.6 hPa South 3.5 km/h 7.2 km/h 64% 0 mm
17:43 16.1 °C 9.3 °C 1025.6 hPa South 3.5 km/h 7.2 km/h 64% 0 mm
17:44 16 °C 9.2 °C 1025.6 hPa South 2.6 km/h 7.2 km/h 64% 0 mm
17:46 15.9 °C 9.1 °C 1025.6 hPa South 2.6 km/h 7.2 km/h 64% 0 mm
17:47 15.9 °C 9.1 °C 1025.6 hPa South 3.5 km/h 7.2 km/h 64% 0 mm
17:48 15.9 °C 9.3 °C 1025.6 hPa South 2.6 km/h 7.2 km/h 65% 0 mm
17:49 15.8 °C 9.2 °C 1025.6 hPa South 3.5 km/h 7.2 km/h 65% 0 mm
17:51 15.7 °C 9.1 °C 1025.6 hPa South 2.6 km/h 6.1 km/h 65% 0 mm
17:52 15.7 °C 9.1 °C 1025.6 hPa South 2.6 km/h 6.1 km/h 65% 0 mm
17:53 15.6 °C 9.1 °C 1025.6 hPa South 2.6 km/h 6.1 km/h 65% 0 mm
17:55 15.6 °C 9.3 °C 1025.6 hPa South 3.5 km/h 6.1 km/h 66% 0 mm
17:57 15.5 °C 9.2 °C 1025.3 hPa South 2.6 km/h 6.1 km/h 66% 0 mm
17:58 15.5 °C 9.2 °C 1025.6 hPa South 1.1 km/h 6.1 km/h 66% 0 mm
18:00 15.4 °C 9.1 °C 1025.6 hPa South 1.1 km/h 6.1 km/h 66% 0 mm
18:02 15.3 °C 9 °C 1025.6 hPa South 2.6 km/h 6.1 km/h 66% 0 mm
18:03 15.3 °C 9 °C 1025.6 hPa South 2.6 km/h 6.1 km/h 66% 0 mm
18:04 15.3 °C 9 °C 1025.6 hPa South 2.6 km/h 6.1 km/h 66% 0 mm
18:05 15.2 °C 8.9 °C 1025.6 hPa South 1.1 km/h 5 km/h 66% 0 mm
18:06 15.2 °C 9.1 °C 1025.6 hPa South 1.1 km/h 5 km/h 67% 0 mm
18:07 15.1 °C 9 °C 1025.6 hPa Calm   5 km/h 67% 0 mm
18:08 15.1 °C 9 °C 1025.6 hPa Calm   5 km/h 67% 0 mm
18:09 15.1 °C 9 °C 1025.6 hPa Calm   5 km/h 67% 0 mm
18:10 15 °C 8.9 °C 1025.6 hPa Calm   5 km/h 67% 0 mm
18:11 15 °C 8.9 °C 1025.6 hPa South 1.1 km/h 5 km/h 67% 0 mm
18:13 15 °C 8.9 °C 1026 hPa SE 2.6 km/h 5 km/h 67% 0 mm
18:14 14.9 °C 8.8 °C 1025.6 hPa East 2.6 km/h 5 km/h 67% 0 mm
18:15 14.8 °C 8.7 °C 1025.6 hPa ENE 1.1 km/h 5 km/h 67% 0 mm
18:16 14.8 °C 8.9 °C 1025.6 hPa ENE 1.1 km/h 5 km/h 68% 0 mm
18:17 14.8 °C 8.9 °C 1026 hPa Calm   5 km/h 68% 0 mm
18:18 14.7 °C 8.8 °C 1025.6 hPa Calm   5 km/h 68% 0 mm
18:19 14.7 °C 8.8 °C 1025.6 hPa Calm   5 km/h 68% 0 mm
18:20 14.6 °C 8.8 °C 1025.6 hPa East 1.1 km/h 5 km/h 68% 0 mm
18:22 14.5 °C 8.9 °C 1026 hPa Calm   5 km/h 69% 0 mm
18:23 14.5 °C 8.9 °C 1026 hPa Calm   5 km/h 69% 0 mm
18:24 14.4 °C 8.8 °C 1025.6 hPa Calm   3.5 km/h 69% 0 mm
18:25 14.3 °C 8.7 °C 1026 hPa Calm   2.6 km/h 69% 0 mm
18:26 14.3 °C 8.7 °C 1025.6 hPa Calm   2.6 km/h 69% 0 mm
18:27 14.2 °C 8.8 °C 1025.6 hPa Calm   2.6 km/h 70% 0 mm
18:28 14.1 °C 8.7 °C 1025.6 hPa Calm   2.6 km/h 70% 0 mm
18:29 14.1 °C 8.7 °C 1025.6 hPa Calm   2.6 km/h 70% 0 mm
18:30 14.1 °C 8.7 °C 1025.6 hPa Calm   2.6 km/h 70% 0 mm
18:31 14 °C 8.6 °C 1026 hPa Calm   2.6 km/h 70% 0 mm
18:32 14 °C 8.6 °C 1025.6 hPa Calm   1.1 km/h 70% 0 mm
18:33 13.9 °C 8.6 °C 1026 hPa Calm     70% 0 mm
18:34 13.9 °C 8.6 °C 1025.6 hPa Calm     70% 0 mm
18:35 13.8 °C 8.7 °C 1025.6 hPa Calm     71% 0 mm
18:36 13.8 °C 8.7 °C 1026 hPa Calm     71% 0 mm
18:37 13.7 °C 8.6 °C 1026 hPa Calm     71% 0 mm
18:39 13.6 °C 8.4 °C 1025.6 hPa Calm     71% 0 mm
18:40 13.6 °C 8.4 °C 1026 hPa Calm     71% 0 mm
18:41 13.6 °C 8.4 °C 1026 hPa Calm     71% 0 mm
18:42 13.5 °C 8.4 °C 1026 hPa Calm     71% 0 mm
18:44 13.4 °C 8.5 °C 1026 hPa Calm     72% 0 mm
18:45 13.4 °C 8.5 °C 1026 hPa Calm     72% 0 mm
18:46 13.4 °C 8.5 °C 1026 hPa Calm     72% 0 mm
18:47 13.3 °C 8.4 °C 1026 hPa Calm     72% 0 mm
18:48 13.3 °C 8.4 °C 1026 hPa Calm     72% 0 mm
18:49 13.2 °C 8.3 °C 1026 hPa Calm     72% 0 mm
18:50 13.2 °C 8.5 °C 1026 hPa Calm     73% 0 mm
18:52 13.1 °C 8.4 °C 1026 hPa Calm     73% 0 mm
18:53 13.1 °C 8.4 °C 1026 hPa Calm     73% 0 mm
18:54 13.1 °C 8.4 °C 1026 hPa Calm     73% 0 mm
18:56 13.1 °C 8.3 °C 1026 hPa Calm     73% 0 mm
18:57 12.9 °C 8.2 °C 1026 hPa Calm     73% 0 mm
18:58 12.9 °C 8.2 °C 1026 hPa Calm     73% 0 mm
18:59 12.9 °C 8.2 °C 1026 hPa Calm     73% 0 mm
19:00 12.9 °C 8.2 °C 1026 hPa Calm     73% 0 mm
19:01 12.8 °C 8.3 °C 1026 hPa Calm     74% 0 mm
19:02 12.8 °C 8.3 °C 1026 hPa Calm     74% 0 mm
19:03 12.7 °C 8.2 °C 1026 hPa Calm     74% 0 mm
19:05 12.7 °C 8.2 °C 1026 hPa Calm     74% 0 mm
19:07 12.7 °C 8.1 °C 1026 hPa Calm     74% 0 mm
19:08 12.7 °C 8.1 °C 1026 hPa Calm     74% 0 mm
19:09 12.6 °C 8.1 °C 1026 hPa Calm     74% 0 mm
19:10 12.6 °C 8.1 °C 1026 hPa Calm     74% 0 mm
19:11 12.6 °C 8.1 °C 1026 hPa Calm     74% 0 mm
19:12 12.4 °C 7.9 °C 1026 hPa Calm     74% 0 mm
19:13 12.4 °C 7.9 °C 1026 hPa Calm     74% 0 mm
19:15 12.3 °C 8.1 °C 1026 hPa Calm     75% 0 mm
19:16 12.3 °C 8.1 °C 1026 hPa Calm     75% 0 mm
19:17 12.2 °C 7.9 °C 1026 hPa Calm     75% 0 mm
19:18 12.2 °C 7.9 °C 1026 hPa Calm     75% 0 mm
19:20 12.2 °C 7.8 °C 1026 hPa Calm     75% 0 mm
19:21 12.2 °C 7.8 °C 1026 hPa Calm     75% 0 mm
19:22 12.2 °C 7.8 °C 1026 hPa Calm     75% 0 mm
19:23 12.2 °C 7.8 °C 1026 hPa NE 1.1 km/h 3.5 km/h 75% 0 mm
19:24 12.1 °C 7.8 °C 1026 hPa NE 1.1 km/h 3.5 km/h 75% 0 mm
19:25 12.1 °C 7.9 °C 1026 hPa Calm   3.5 km/h 76% 0 mm
19:27 11.9 °C 7.9 °C 1026.3 hPa Calm   3.5 km/h 76% 0 mm
19:28 11.9 °C 7.9 °C 1026 hPa Calm   3.5 km/h 76% 0 mm
19:29 11.8 °C 7.8 °C 1026.3 hPa Calm   3.5 km/h 76% 0 mm
19:32 11.8 °C 7.7 °C 1026.3 hPa Calm   3.5 km/h 76% 0 mm
19:33 11.7 °C 7.6 °C 1026 hPa NNE 1.1 km/h 3.5 km/h 76% 0 mm
19:34 11.7 °C 7.6 °C 1026 hPa Calm   2.6 km/h 76% 0 mm
19:37 11.4 °C 7.4 °C 1026.3 hPa Calm   2.6 km/h 76% 0 mm
19:38 11.4 °C 7.4 °C 1026.3 hPa Calm   2.6 km/h 76% 0 mm
19:39 11.4 °C 7.3 °C 1026.3 hPa WNW 1.1 km/h 2.6 km/h 76% 0 mm
19:41 11.3 °C 7.2 °C 1026.3 hPa Calm   2.6 km/h 76% 0 mm
19:42 11.3 °C 7.4 °C 1026.3 hPa Calm   2.6 km/h 77% 0 mm
19:43 11.3 °C 7.4 °C 1026.3 hPa Calm   2.6 km/h 77% 0 mm
19:44 11.2 °C 7.3 °C 1026.3 hPa Calm   2.6 km/h 77% 0 mm
19:45 11.2 °C 7.3 °C 1026.3 hPa Calm   2.6 km/h 77% 0 mm
19:46 11.2 °C 7.3 °C 1026.3 hPa Calm   2.6 km/h 77% 0 mm
19:47 11.1 °C 7.2 °C 1026.3 hPa Calm   2.6 km/h 77% 0 mm
19:49 11.1 °C 7.2 °C 1026.3 hPa Calm   2.6 km/h 77% 0 mm
19:50 11.1 °C 7.2 °C 1026.3 hPa Calm   2.6 km/h 77% 0 mm
19:51 11 °C 7.1 °C 1026.3 hPa Calm     77% 0 mm
19:52 11 °C 7.1 °C 1026.3 hPa Calm     77% 0 mm
19:53 11 °C 7.1 °C 1026.6 hPa Calm     77% 0 mm
19:54 10.9 °C 7 °C 1026.6 hPa Calm     77% 0 mm
19:55 10.9 °C 7 °C 1026.3 hPa Calm     77% 0 mm
19:56 10.9 °C 7 °C 1026.3 hPa Calm     77% 0 mm
19:57 10.8 °C 6.9 °C 1026.3 hPa Calm     77% 0 mm
19:58 10.8 °C 7.1 °C 1026.6 hPa Calm     78% 0 mm
19:59 10.8 °C 7.1 °C 1026.6 hPa Calm     78% 0 mm
20:00 10.7 °C 7 °C 1026.6 hPa Calm     78% 0 mm
20:02 10.7 °C 6.8 °C 1026.3 hPa Calm     77% 0 mm
20:03 10.7 °C 7 °C 1026.3 hPa Calm     78% 0 mm
20:04 10.6 °C 6.9 °C 1026.3 hPa Calm     78% 0 mm
20:06 10.5 °C 6.8 °C 1026.6 hPa Calm     78% 0 mm
20:07 10.5 °C 6.8 °C 1026.3 hPa Calm     78% 0 mm
20:08 10.5 °C 6.8 °C 1026.6 hPa Calm     78% 0 mm
20:09 10.4 °C 6.7 °C 1026.6 hPa Calm     78% 0 mm
20:10 10.4 °C 6.7 °C 1026.6 hPa Calm     78% 0 mm
20:11 10.3 °C 6.6 °C 1026.6 hPa Calm     78% 0 mm
20:12 10.3 °C 6.6 °C 1026.6 hPa Calm     78% 0 mm
20:14 10.2 °C 6.6 °C 1026.3 hPa Calm     78% 0 mm
20:15 10.2 °C 6.6 °C 1026.6 hPa Calm     78% 0 mm
20:16 10.2 °C 6.6 °C 1026.6 hPa Calm     78% 0 mm
20:17 10.2 °C 6.6 °C 1026.6 hPa Calm     78% 0 mm
20:20 10.1 °C 6.6 °C 1026.6 hPa Calm     79% 0 mm
20:21 10.1 °C 6.6 °C 1026.6 hPa Calm     79% 0 mm
20:22 10.1 °C 6.6 °C 1026.6 hPa Calm     79% 0 mm
20:23 10.1 °C 6.6 °C 1026.6 hPa Calm     79% 0 mm
20:25 10 °C 6.5 °C 1026.6 hPa Calm     79% 0 mm
20:26 10 °C 6.5 °C 1026.6 hPa Calm     79% 0 mm
20:27 9.9 °C 6.4 °C 1026.6 hPa Calm     79% 0 mm
20:28 9.9 °C 6.4 °C 1026.6 hPa Calm     79% 0 mm
20:29 9.9 °C 6.4 °C 1026.6 hPa Calm     79% 0 mm
20:30 9.9 °C 6.4 °C 1027 hPa Calm     79% 0 mm
20:31 9.8 °C 6.3 °C 1026.6 hPa Calm     79% 0 mm
20:32 9.8 °C 6.3 °C 1026.6 hPa Calm     79% 0 mm
20:33 9.8 °C 6.3 °C 1026.6 hPa Calm     79% 0 mm
20:34 9.7 °C 6.2 °C 1026.6 hPa Calm     79% 0 mm
20:37 9.7 °C 6.2 °C 1027 hPa Calm     79% 0 mm
20:38 9.6 °C 6.3 °C 1026.6 hPa Calm     80% 0 mm
20:39 9.6 °C 6.2 °C 1026.6 hPa Calm     79% 0 mm
20:42 9.5 °C 6.2 °C 1026.6 hPa Calm     80% 0 mm
20:43 9.5 °C 6.2 °C 1026.6 hPa Calm     80% 0 mm
20:44 9.5 °C 6.2 °C 1026.6 hPa Calm     80% 0 mm
20:45 9.5 °C 6.2 °C 1026.6 hPa Calm     80% 0 mm
20:47 9.4 °C 6.1 °C 1026.6 hPa Calm     80% 0 mm
20:49 9.4 °C 6.1 °C 1026.6 hPa Calm     80% 0 mm
20:50 9.4 °C 6.1 °C 1026.6 hPa Calm     80% 0 mm
20:53 9.3 °C 6.1 °C 1026.6 hPa Calm     80% 0 mm
20:54 9.2 °C 5.9 °C 1026.6 hPa Calm     80% 0 mm
20:55 9.2 °C 5.9 °C 1026.6 hPa Calm     80% 0 mm
20:56 9.1 °C 5.8 °C 1026.6 hPa Calm     80% 0 mm
20:58 9 °C 5.8 °C 1026.6 hPa Calm     80% 0 mm
20:59 9 °C 5.8 °C 1026.6 hPa Calm     80% 0 mm
21:00 8.9 °C 5.7 °C 1026.6 hPa Calm     80% 0 mm
21:01 8.9 °C 5.7 °C 1026.6 hPa Calm     80% 0 mm
21:03 8.9 °C 5.7 °C 1027 hPa Calm     80% 0 mm
21:05 8.9 °C 5.8 °C 1026.6 hPa Calm     81% 0 mm
21:06 8.8 °C 5.6 °C 1026.6 hPa Calm     80% 0 mm
www.araratweather.com - Email: contact at araratweather.com
Data created with Cumulus & bmak
Click here to send mail.


ABOUT

Live weather data from Ararat, Victoria, Australia, 3377
Data uploaded from Cumulus every 5 minutes to Weather Underground.
This site then downloads the raw data for formatting and display.
Metric and imperial data can be displayed. Graphs and historical data available.
Includes Sun and Moon times and rain image live from BOM.

Check out Ararat Weather on Facebook, Twitter and Google +

Help support ongoing costs by checking out the ads





Follow @AraratWeather